Wetterdaten: Freitag, 06.07.2018
Datum Zeit Temp. Aussen Temp. o. S. +5cm Feuchte Auss Luftdruck Regen Sonnenschein Regendauer Solar Windben Empfang
06.07.2018 00:00 19,4 C 17,8 C 17,8 C 77 % 1014,1 hPa 0,0 l/m 0 min 0 min 0 W/m 2,3 km/h (1 Bft) 100,00 %
06.07.2018 00:02 19,4 C 17,2 C 17,8 C 77 % 1014,2 hPa 0,0 l/m 0 min 0 min 0 W/m 0,0 km/h (0 Bft) 97,37 %
06.07.2018 00:04 19,4 C 17,2 C 17,8 C 77 % 1014,2 hPa 0,0 l/m 0 min 0 min 0 W/m 2,3 km/h (1 Bft) 100,00 %
06.07.2018 00:07 19,3 C 17,2 C 17,8 C 78 % 1014,3 hPa 0,0 l/m 0 min 0 min 0 W/m 4,5 km/h (1 Bft) 100,00 %
06.07.2018 00:08 19,3 C 17,2 C 17,8 C 78 % 1014,2 hPa 0,0 l/m 0 min 0 min 0 W/m 6,8 km/h (2 Bft) 100,00 %
06.07.2018 00:10 19,2 C 17,2 C 17,8 C 78 % 1014,3 hPa 0,0 l/m 0 min 0 min 0 W/m 4,5 km/h (1 Bft) 100,00 %
06.07.2018 00:12 19,2 C 17,2 C 17,8 C 78 % 1014,3 hPa 0,0 l/m 0 min 0 min 0 W/m 6,8 km/h (2 Bft) 97,87 %
06.07.2018 00:14 19,2 C 17,2 C 17,8 C 78 % 1014,3 hPa 0,0 l/m 0 min 0 min 0 W/m 6,8 km/h (2 Bft) 100,00 %
06.07.2018 00:16 19,1 C 17,2 C 17,8 C 78 % 1014,3 hPa 0,0 l/m 0 min 0 min 0 W/m 0,0 km/h (0 Bft) 100,00 %
06.07.2018 00:18 19,1 C 17,2 C 17,8 C 78 % 1014,4 hPa 0,0 l/m 0 min 0 min 0 W/m 0,0 km/h (0 Bft) 100,00 %
06.07.2018 00:20 19,0 C 17,2 C 17,8 C 79 % 1014,4 hPa 0,0 l/m 0 min 0 min 0 W/m 4,5 km/h (1 Bft) 100,00 %
06.07.2018 00:22 18,9 C 17,2 C 17,2 C 79 % 1014,4 hPa 0,0 l/m 0 min 0 min 0 W/m 9,0 km/h (2 Bft) 97,87 %
06.07.2018 00:24 18,9 C 17,2 C 17,2 C 79 % 1014,4 hPa 0,0 l/m 0 min 0 min 0 W/m 9,0 km/h (2 Bft) 100,00 %
06.07.2018 00:26 18,9 C 17,2 C 17,2 C 79 % 1014,5 hPa 0,0 l/m 0 min 0 min 0 W/m 2,3 km/h (1 Bft) 100,00 %
06.07.2018 00:28 18,8 C 17,2 C 17,2 C 79 % 1014,5 hPa 0,0 l/m 0 min 0 min 0 W/m 0,0 km/h (0 Bft) 100,00 %
06.07.2018 00:30 18,8 C 17,2 C 17,2 C 80 % 1014,5 hPa 0,0 l/m 0 min 0 min 0 W/m 0,0 km/h (0 Bft) 100,00 %
06.07.2018 00:32 18,7 C 17,2 C 17,2 C 80 % 1014,5 hPa 0,0 l/m 0 min 0 min 0 W/m 0,0 km/h (0 Bft) 100,00 %
06.07.2018 00:34 18,7 C 16,7 C 17,2 C 80 % 1014,6 hPa 0,0 l/m 0 min 0 min 0 W/m 0,0 km/h (0 Bft) 97,87 %
06.07.2018 00:36 18,7 C 17,2 C 17,2 C 80 % 1014,6 hPa 0,0 l/m 0 min 0 min 0 W/m 0,0 km/h (0 Bft) 100,00 %
06.07.2018 00:38 18,6 C 16,7 C 17,2 C 80 % 1014,6 hPa 0,0 l/m 0 min 0 min 0 W/m 6,8 km/h (2 Bft) 100,00 %
06.07.2018 00:40 18,6 C 16,7 C 17,2 C 80 % 1014,6 hPa 0,0 l/m 0 min 0 min 0 W/m 6,8 km/h (2 Bft) 100,00 %
06.07.2018 00:42 18,5 C 16,7 C 17,2 C 81 % 1014,6 hPa 0,0 l/m 0 min 0 min 0 W/m 6,8 km/h (2 Bft) 100,00 %
06.07.2018 00:44 18,5 C 16,7 C 17,2 C 81 % 1014,6 hPa 0,0 l/m 0 min 0 min 0 W/m 6,8 km/h (2 Bft) 100,00 %
06.07.2018 00:46 18,4 C 16,7 C 17,2 C 81 % 1014,6 hPa 0,0 l/m 0 min 0 min 0 W/m 9,0 km/h (2 Bft) 100,00 %
06.07.2018 00:48 18,4 C 16,7 C 17,2 C 81 % 1014,6 hPa 0,0 l/m 0 min 0 min 0 W/m 11,3 km/h (2 Bft) 100,00 %
06.07.2018 00:50 18,4 C 16,7 C 17,2 C 81 % 1014,7 hPa 0,0 l/m 0 min 0 min 0 W/m 4,5 km/h (1 Bft) 100,00 %
06.07.2018 00:52 18,3 C 16,7 C 17,2 C 81 % 1014,7 hPa 0,0 l/m 0 min 0 min 0 W/m 2,3 km/h (1 Bft) 98,11 %
06.07.2018 00:54 18,3 C 16,7 C 17,2 C 81 % 1014,6 hPa 0,0 l/m 0 min 0 min 0 W/m 2,3 km/h (1 Bft) 100,00 %
06.07.2018 00:56 18,2 C 16,7 C 17,2 C 82 % 1014,6 hPa 0,0 l/m 0 min 0 min 0 W/m 9,0 km/h (2 Bft) 100,00 %
06.07.2018 00:58 18,2 C 16,7 C 17,2 C 82 % 1014,6 hPa 0,0 l/m 0 min 0 min 0 W/m 6,8 km/h (2 Bft) 100,00 %
06.07.2018 01:00 18,2 C 16,7 C 17,2 C 82 % 1014,6 hPa 0,0 l/m 0 min 0 min 0 W/m 4,5 km/h (1 Bft) 100,00 %
06.07.2018 01:02 18,1 C 16,7 C 17,2 C 82 % 1014,7 hPa 0,0 l/m 0 min 0 min 0 W/m 6,8 km/h (2 Bft) 100,00 %
06.07.2018 01:04 18,1 C 16,7 C 16,7 C 82 % 1014,7 hPa 0,0 l/m 0 min 0 min 0 W/m 2,3 km/h (1 Bft) 97,87 %
06.07.2018 01:06 18,1 C 16,7 C 16,7 C 82 % 1014,7 hPa 0,0 l/m 0 min 0 min 0 W/m 2,3 km/h (1 Bft) 100,00 %
06.07.2018 01:08 18,1 C 16,7 C 16,7 C 82 % 1014,6 hPa 0,0 l/m 0 min 0 min 0 W/m 2,3 km/h (1 Bft) 100,00 %
06.07.2018 01:10 18,1 C 16,7 C 16,7 C 83 % 1014,7 hPa 0,0 l/m 0 min 0 min 0 W/m 4,5 km/h (1 Bft) 97,87 %
06.07.2018 01:12 18,0 C 16,7 C 16,7 C 82 % 1014,6 hPa 0,0 l/m 0 min 0 min 0 W/m 0,0 km/h (0 Bft) 100,00 %
06.07.2018 01:14 18,0 C 16,7 C 16,7 C 83 % 1014,7 hPa 0,0 l/m 0 min 0 min 0 W/m 2,3 km/h (1 Bft) 100,00 %
06.07.2018 01:16 17,9 C 16,7 C 16,7 C 83 % 1014,7 hPa 0,0 l/m 0 min 0 min 0 W/m 2,3 km/h (1 Bft) 95,74 %
06.07.2018 01:18 17,9 C 16,7 C 16,7 C 83 % 1014,7 hPa 0,0 l/m 0 min 0 min 0 W/m 4,5 km/h (1 Bft) 97,62 %
06.07.2018 01:20 17,9 C 16,7 C 16,7 C 83 % 1014,7 hPa 0,0 l/m 0 min 0 min 0 W/m 6,8 km/h (2 Bft) 97,87 %
06.07.2018 01:22 17,9 C 16,7 C 16,7 C 83 % 1014,7 hPa 0,0 l/m 0 min 0 min 0 W/m 6,8 km/h (2 Bft) 100,00 %
06.07.2018 01:24 17,9 C 16,7 C 16,7 C 83 % 1014,7 hPa 0,0 l/m 0 min 0 min 0 W/m 4,5 km/h (1 Bft) 97,87 %
06.07.2018 01:26 17,8 C 16,7 C 16,7 C 83 % 1014,7 hPa 0,0 l/m 0 min 0 min 0 W/m 6,8 km/h (2 Bft) 97,87 %
06.07.2018 01:28 17,8 C 16,7 C 16,7 C 83 % 1014,8 hPa 0,0 l/m 0 min 0 min 0 W/m 4,5 km/h (1 Bft) 97,87 %
06.07.2018 01:30 17,8 C 16,7 C 16,7 C 83 % 1014,8 hPa 0,0 l/m 0 min 0 min 0 W/m 6,8 km/h (2 Bft) 97,87 %
06.07.2018 01:32 17,8 C 16,7 C 16,7 C 83 % 1014,8 hPa 0,0 l/m 0 min 0 min 0 W/m 6,8 km/h (2 Bft) 97,87 %
06.07.2018 01:34 17,7 C 16,7 C 16,7 C 83 % 1014,9 hPa 0,0 l/m 0 min 0 min 0 W/m 9,0 km/h (2 Bft) 97,83 %
06.07.2018 01:36 17,7 C 16,1 C 16,7 C 84 % 1014,8 hPa 0,0 l/m 0 min 0 min 0 W/m 4,5 km/h (1 Bft) 95,74 %
06.07.2018 01:38 17,7 C 16,1 C 16,7 C 84 % 1014,8 hPa 0,0 l/m 0 min 0 min 0 W/m 6,8 km/h (2 Bft) 97,87 %
06.07.2018 01:40 17,7 C 16,1 C 16,7 C 83 % 1014,8 hPa 0,0 l/m 0 min 0 min 0 W/m 6,8 km/h (2 Bft) 95,74 %
06.07.2018 01:42 17,7 C 16,1 C 16,7 C 84 % 1014,8 hPa 0,0 l/m 0 min 0 min 0 W/m 4,5 km/h (1 Bft) 95,74 %
06.07.2018 01:44 17,6 C 16,1 C 16,7 C 84 % 1014,8 hPa 0,0 l/m 0 min 0 min 0 W/m 6,8 km/h (2 Bft) 95,74 %
06.07.2018 01:46 17,6 C 16,1 C 16,7 C 84 % 1014,8 hPa 0,0 l/m 0 min 0 min 0 W/m 11,3 km/h (2 Bft) 95,12 %
06.07.2018 01:48 17,6 C 16,1 C 16,7 C 84 % 1014,9 hPa 0,0 l/m 0 min 0 min 0 W/m 4,5 km/h (1 Bft) 93,75 %
06.07.2018 01:50 17,6 C 16,1 C 16,7 C 84 % 1014,9 hPa 0,0 l/m 0 min 0 min 0 W/m 6,8 km/h (2 Bft) 95,74 %
06.07.2018 01:52 17,5 C 16,1 C 16,7 C 84 % 1014,8 hPa 0,0 l/m 0 min 0 min 0 W/m 4,5 km/h (1 Bft) 95,74 %
06.07.2018 01:54 17,5 C 16,1 C 16,7 C 84 % 1014,9 hPa 0,0 l/m 0 min 0 min 0 W/m 4,5 km/h (1 Bft) 91,49 %
06.07.2018 01:56 17,4 C 16,1 C 16,7 C 84 % 1014,8 hPa 0,0 l/m 0 min 0 min 0 W/m 6,8 km/h (2 Bft) 93,62 %
06.07.2018 01:58 17,4 C 16,1 C 16,7 C 84 % 1014,9 hPa 0,0 l/m 0 min 0 min 0 W/m 4,5 km/h (1 Bft) 95,65 %
06.07.2018 02:00 17,4 C 16,1 C 16,7 C 84 % 1014,9 hPa 0,0 l/m 0 min 0 min 0 W/m 9,0 km/h (2 Bft) 95,74 %
06.07.2018 02:02 17,4 C 16,1 C 16,1 C 84 % 1014,9 hPa 0,0 l/m 0 min 0 min 0 W/m 4,5 km/h (1 Bft) 96,23 %
06.07.2018 02:04 17,4 C 16,1 C 16,1 C 84 % 1014,8 hPa 0,0 l/m 0 min 0 min 0 W/m 4,5 km/h (1 Bft) 93,62 %
06.07.2018 02:06 17,3 C 16,1 C 16,1 C 84 % 1014,8 hPa 0,0 l/m 0 min 0 min 0 W/m 2,3 km/h (1 Bft) 95,74 %
06.07.2018 02:08 17,3 C 16,1 C 16,1 C 84 % 1014,8 hPa 0,0 l/m 0 min 0 min 0 W/m 9,0 km/h (2 Bft) 95,65 %
06.07.2018 02:10 17,3 C 16,1 C 16,1 C 85 % 1014,8 hPa 0,0 l/m 0 min 0 min 0 W/m 9,0 km/h (2 Bft) 97,87 %
06.07.2018 02:12 17,3 C 16,1 C 16,1 C 85 % 1014,9 hPa 0,0 l/m 0 min 0 min 0 W/m 6,8 km/h (2 Bft) 95,74 %
06.07.2018 02:14 17,2 C 15,6 C 16,1 C 85 % 1014,9 hPa 0,0 l/m 0 min 0 min 0 W/m 6,8 km/h (2 Bft) 97,87 %
06.07.2018 02:16 17,2 C 16,1 C 16,1 C 85 % 1014,9 hPa 0,0 l/m 0 min 0 min 0 W/m 2,3 km/h (1 Bft) 97,87 %
06.07.2018 02:18 17,2 C 15,6 C 16,1 C 85 % 1014,8 hPa 0,0 l/m 0 min 0 min 0 W/m 11,3 km/h (2 Bft) 97,62 %
06.07.2018 02:20 17,2 C 15,6 C 16,1 C 85 % 1014,9 hPa 0,0 l/m 0 min 0 min 0 W/m 4,5 km/h (1 Bft) 95,65 %
06.07.2018 02:22 17,2 C 15,6 C 16,1 C 85 % 1014,9 hPa 0,0 l/m 0 min 0 min 0 W/m 9,0 km/h (2 Bft) 94,34 %
06.07.2018 02:24 17,1 C 15,6 C 16,1 C 85 % 1014,9 hPa 0,0 l/m 0 min 0 min 0 W/m 4,5 km/h (1 Bft) 95,74 %
06.07.2018 02:26 17,1 C 15,6 C 16,1 C 85 % 1014,9 hPa 0,0 l/m 0 min 0 min 0 W/m 0,0 km/h (0 Bft) 95,24 %
06.07.2018 02:28 17,1 C 15,6 C 16,1 C 85 % 1015,0 hPa 0,0 l/m 0 min 0 min 0 W/m 6,8 km/h (2 Bft) 95,74 %
06.07.2018 02:30 17,1 C 15,6 C 16,1 C 85 % 1015,0 hPa 0,0 l/m 0 min 0 min 0 W/m 9,0 km/h (2 Bft) 95,74 %
06.07.2018 02:32 17,0 C 15,6 C 16,1 C 85 % 1015,0 hPa 0,0 l/m 0 min 0 min 0 W/m 6,8 km/h (2 Bft) 98,11 %
06.07.2018 02:34 17,0 C 15,6 C 16,1 C 85 % 1014,9 hPa 0,0 l/m 0 min 0 min 0 W/m 2,3 km/h (1 Bft) 97,87 %
06.07.2018 02:36 16,9 C 15,6 C 16,1 C 85 % 1015,0 hPa 0,0 l/m 0 min 0 min 0 W/m 0,0 km/h (0 Bft) 100,00 %
06.07.2018 02:38 16,9 C 15,6 C 16,1 C 85 % 1014,9 hPa 0,0 l/m 0 min 0 min 0 W/m 4,5 km/h (1 Bft) 95,74 %
06.07.2018 02:40 16,9 C 15,6 C 16,1 C 86 % 1015,0 hPa 0,0 l/m 0 min 0 min 0 W/m 4,5 km/h (1 Bft) 97,87 %
06.07.2018 02:42 16,9 C 15,6 C 16,1 C 86 % 1014,9 hPa 0,0 l/m 0 min 0 min 0 W/m 0,0 km/h (0 Bft) 93,48 %
06.07.2018 02:44 16,8 C 15,6 C 16,1 C 86 % 1014,9 hPa 0,0 l/m 0 min 0 min 0 W/m 2,3 km/h (1 Bft) 97,87 %
06.07.2018 02:46 16,8 C 15,6 C 16,1 C 86 % 1014,9 hPa 0,0 l/m 0 min 0 min 0 W/m 0,0 km/h (0 Bft) 97,87 %
06.07.2018 02:48 16,8 C 15,6 C 15,6 C 86 % 1014,9 hPa 0,0 l/m 0 min 0 min 0 W/m 2,3 km/h (1 Bft) 95,74 %
06.07.2018 02:50 16,8 C 15,6 C 15,6 C 86 % 1015,0 hPa 0,0 l/m 0 min 0 min 0 W/m 4,5 km/h (1 Bft) 97,87 %
06.07.2018 02:52 16,7 C 15,6 C 15,6 C 86 % 1015,0 hPa 0,0 l/m 0 min 0 min 0 W/m 2,3 km/h (1 Bft) 97,92 %
06.07.2018 02:54 16,7 C 15,6 C 15,6 C 86 % 1015,0 hPa 0,0 l/m 0 min 0 min 0 W/m 6,8 km/h (2 Bft) 95,65 %
06.07.2018 02:56 16,7 C 15,6 C 15,6 C 86 % 1015,0 hPa 0,0 l/m 0 min 0 min 0 W/m 2,3 km/h (1 Bft) 97,87 %
06.07.2018 02:58 16,7 C 15,6 C 15,6 C 86 % 1015,0 hPa 0,0 l/m 0 min 0 min 0 W/m 2,3 km/h (1 Bft) 95,74 %
06.07.2018 03:00 16,7 C 15,6 C 15,6 C 87 % 1015,1 hPa 0,0 l/m 0 min 0 min 0 W/m 2,3 km/h (1 Bft) 97,87 %
06.07.2018 03:02 16,7 C 15,6 C 15,6 C 86 % 1015,1 hPa 0,0 l/m 0 min 0 min 0 W/m 0,0 km/h (0 Bft) 95,74 %
06.07.2018 03:04 16,7 C 15,6 C 15,6 C 86 % 1015,1 hPa 0,0 l/m 0 min 0 min 0 W/m 0,0 km/h (0 Bft) 97,87 %
06.07.2018 03:08 16,6 C 15,6 C 15,6 C 87 % 1015,1 hPa 0,0 l/m 0 min 0 min 0 W/m 6,8 km/h (2 Bft) 97,62 %
06.07.2018 03:10 16,6 C 15,6 C 15,6 C 87 % 1015,1 hPa 0,0 l/m 0 min 0 min 0 W/m 2,3 km/h (1 Bft) 97,87 %
06.07.2018 03:12 16,6 C 15,6 C 15,6 C 87 % 1015,2 hPa 0,0 l/m 0 min 0 min 0 W/m 0,0 km/h (0 Bft) 97,87 %
06.07.2018 03:14 16,6 C 15,6 C 15,6 C 87 % 1015,2 hPa 0,0 l/m 0 min 0 min 0 W/m 2,3 km/h (1 Bft) 97,87 %
06.07.2018 03:16 16,6 C 15,6 C 15,6 C 87 % 1015,1 hPa 0,0 l/m 0 min 0 min 0 W/m 4,5 km/h (1 Bft) 95,83 %
06.07.2018 03:18 16,5 C 15,0 C 15,6 C 87 % 1015,1 hPa 0,0 l/m 0 min 0 min 0 W/m 4,5 km/h (1 Bft) 97,83 %
06.07.2018 03:20 16,5 C 15,0 C 15,6 C 87 % 1015,0 hPa 0,0 l/m 0 min 0 min 0 W/m 2,3 km/h (1 Bft) 97,87 %
06.07.2018 03:22 16,4 C 15,0 C 15,6 C 87 % 1015,1 hPa 0,0 l/m 0 min 0 min 0 W/m 2,3 km/h (1 Bft) 97,87 %
06.07.2018 03:24 16,4 C 15,0 C 15,6 C 87 % 1015,2 hPa 0,0 l/m 0 min 0 min 0 W/m 4,5 km/h (1 Bft) 97,87 %
06.07.2018 03:26 16,4 C 15,0 C 15,6 C 87 % 1015,3 hPa 0,0 l/m 0 min 0 min 0 W/m 0,0 km/h (0 Bft) 95,74 %
06.07.2018 03:28 16,4 C 15,0 C 15,6 C 87 % 1015,3 hPa 0,0 l/m 0 min 0 min 0 W/m 4,5 km/h (1 Bft) 97,87 %
06.07.2018 03:30 16,4 C 15,0 C 15,6 C 87 % 1015,2 hPa 0,0 l/m 0 min 0 min 0 W/m 4,5 km/h (1 Bft) 97,83 %
06.07.2018 03:32 16,4 C 15,0 C 15,6 C 87 % 1015,3 hPa 0,0 l/m 0 min 0 min 0 W/m 0,0 km/h (0 Bft) 98,00 %
06.07.2018 03:34 16,3 C 15,0 C 15,0 C 87 % 1015,3 hPa 0,0 l/m 0 min 0 min 0 W/m 4,5 km/h (1 Bft) 97,87 %
06.07.2018 03:36 16,3 C 15,0 C 15,0 C 87 % 1015,4 hPa 0,0 l/m 0 min 0 min 0 W/m 4,5 km/h (1 Bft) 100,00 %
06.07.2018 03:38 16,3 C 15,0 C 15,0 C 87 % 1015,5 hPa 0,0 l/m 0 min 0 min 0 W/m 4,5 km/h (1 Bft) 100,00 %
06.07.2018 03:40 16,3 C 15,0 C 15,0 C 87 % 1015,5 hPa 0,0 l/m 0 min 0 min 0 W/m 2,3 km/h (1 Bft) 100,00 %
06.07.2018 03:42 16,2 C 15,0 C 15,0 C 87 % 1015,4 hPa 0,0 l/m 0 min 0 min 0 W/m 4,5 km/h (1 Bft) 100,00 %
06.07.2018 03:44 16,2 C 15,0 C 15,0 C 87 % 1015,5 hPa 0,0 l/m 0 min 0 min 0 W/m 9,0 km/h (2 Bft) 95,74 %
06.07.2018 03:46 16,2 C 15,0 C 15,0 C 87 % 1015,5 hPa 0,0 l/m 0 min 0 min 0 W/m 6,8 km/h (2 Bft) 97,87 %
06.07.2018 03:48 16,2 C 15,0 C 15,0 C 88 % 1015,5 hPa 0,0 l/m 0 min 0 min 0 W/m 0,0 km/h (0 Bft) 97,87 %
06.07.2018 03:50 16,1 C 15,0 C 15,0 C 88 % 1015,5 hPa 0,0 l/m 0 min 0 min 0 W/m 9,0 km/h (2 Bft) 97,87 %
06.07.2018 03:52 16,1 C 15,0 C 15,0 C 88 % 1015,5 hPa 0,0 l/m 0 min 0 min 0 W/m 6,8 km/h (2 Bft) 97,83 %
06.07.2018 03:54 16,1 C 15,0 C 15,0 C 88 % 1015,4 hPa 0,0 l/m 0 min 0 min 0 W/m 6,8 km/h (2 Bft) 97,87 %
06.07.2018 03:56 16,1 C 15,0 C 15,0 C 88 % 1015,4 hPa 0,0 l/m 0 min 0 min 0 W/m 9,0 km/h (2 Bft) 97,92 %
06.07.2018 03:58 16,1 C 15,0 C 15,0 C 88 % 1015,5 hPa 0,0 l/m 0 min 0 min 0 W/m 2,3 km/h (1 Bft) 97,87 %
06.07.2018 04:00 16,0 C 15,0 C 15,0 C 88 % 1015,5 hPa 0,0 l/m 0 min 0 min 0 W/m 6,8 km/h (2 Bft) 97,87 %
06.07.2018 04:02 16,0 C 15,0 C 15,0 C 88 % 1015,6 hPa 0,0 l/m 0 min 0 min 0 W/m 0,0 km/h (0 Bft) 100,00 %
06.07.2018 04:04 16,0 C 15,0 C 15,0 C 88 % 1015,6 hPa 0,0 l/m 0 min 0 min 0 W/m 6,8 km/h (2 Bft) 95,92 %
06.07.2018 04:06 15,9 C 15,0 C 15,0 C 88 % 1015,5 hPa 0,0 l/m 0 min 0 min 0 W/m 9,0 km/h (2 Bft) 97,87 %
06.07.2018 04:08 15,9 C 15,0 C 15,0 C 89 % 1015,5 hPa 0,0 l/m 0 min 0 min 0 W/m 4,5 km/h (1 Bft) 97,87 %
06.07.2018 04:10 15,9 C 15,0 C 15,0 C 89 % 1015,5 hPa 0,0 l/m 0 min 0 min 0 W/m 2,3 km/h (1 Bft) 97,87 %
06.07.2018 04:12 15,9 C 15,0 C 15,0 C 89 % 1015,5 hPa 0,0 l/m 0 min 0 min 0 W/m 9,0 km/h (2 Bft) 97,87 %
06.07.2018 04:14 15,9 C 15,0 C 15,0 C 89 % 1015,5 hPa 0,0 l/m 0 min 0 min 0 W/m 6,8 km/h (2 Bft) 97,83 %
06.07.2018 04:16 15,9 C 15,0 C 15,0 C 89 % 1015,5 hPa 0,0 l/m 0 min 0 min 0 W/m 4,5 km/h (1 Bft) 97,92 %
06.07.2018 04:18 15,9 C 15,0 C 15,0 C 89 % 1015,5 hPa 0,0 l/m 0 min 0 min 0 W/m 6,8 km/h (2 Bft) 97,87 %
06.07.2018 04:20 15,8 C 15,0 C 15,0 C 89 % 1015,5 hPa 0,0 l/m 0 min 0 min 0 W/m 6,8 km/h (2 Bft) 97,87 %
06.07.2018 04:22 15,8 C 15,0 C 15,0 C 89 % 1015,4 hPa 0,0 l/m 0 min 0 min 0 W/m 9,0 km/h (2 Bft) 97,87 %
06.07.2018 04:24 15,8 C 15,0 C 15,0 C 89 % 1015,5 hPa 0,0 l/m 0 min 0 min 0 W/m 0,0 km/h (0 Bft) 97,87 %
06.07.2018 04:26 15,8 C 15,0 C 15,0 C 89 % 1015,5 hPa 0,0 l/m 0 min 0 min 0 W/m 4,5 km/h (1 Bft) 97,87 %
06.07.2018 04:28 15,8 C 15,0 C 15,0 C 89 % 1015,5 hPa 0,0 l/m 0 min 0 min 0 W/m 4,5 km/h (1 Bft) 95,74 %
06.07.2018 04:30 15,8 C 15,0 C 15,0 C 89 % 1015,5 hPa 0,0 l/m 0 min 0 min 0 W/m 0,0 km/h (0 Bft) 97,87 %
06.07.2018 04:32 15,8 C 15,0 C 15,0 C 90 % 1015,6 hPa 0,0 l/m 0 min 0 min 0 W/m 4,5 km/h (1 Bft) 97,30 %
06.07.2018 04:34 15,7 C 14,4 C 15,0 C 90 % 1015,6 hPa 0,0 l/m 0 min 0 min 0 W/m 4,5 km/h (1 Bft) 95,74 %
06.07.2018 04:36 15,7 C 14,4 C 15,0 C 89 % 1015,6 hPa 0,0 l/m 0 min 0 min 0 W/m 6,8 km/h (2 Bft) 97,92 %
06.07.2018 04:38 15,7 C 14,4 C 15,0 C 89 % 1015,6 hPa 0,0 l/m 0 min 0 min 0 W/m 2,3 km/h (1 Bft) 94,29 %
06.07.2018 04:40 15,7 C 14,4 C 15,0 C 89 % 1015,5 hPa 0,0 l/m 0 min 0 min 0 W/m 6,8 km/h (2 Bft) 96,55 %
06.07.2018 04:42 15,7 C 14,4 C 15,0 C 90 % 1015,5 hPa 0,0 l/m 0 min 0 min 0 W/m 0,0 km/h (0 Bft) 95,74 %
06.07.2018 04:44 15,7 C 14,4 C 15,0 C 90 % 1015,5 hPa 0,0 l/m 0 min 0 min 0 W/m 2,3 km/h (1 Bft) 95,74 %
06.07.2018 04:46 15,7 C 14,4 C 15,0 C 90 % 1015,5 hPa 0,0 l/m 0 min 0 min 0 W/m 2,3 km/h (1 Bft) 97,87 %
06.07.2018 04:48 15,7 C 14,4 C 15,0 C 90 % 1015,6 hPa 0,0 l/m 0 min 0 min 0 W/m 0,0 km/h (0 Bft) 97,92 %
06.07.2018 04:50 15,7 C 14,4 C 15,0 C 90 % 1015,5 hPa 0,0 l/m 0 min 0 min 0 W/m 0,0 km/h (0 Bft) 97,87 %
06.07.2018 04:52 15,6 C 14,4 C 15,0 C 90 % 1015,5 hPa 0,0 l/m 0 min 0 min 0 W/m 2,3 km/h (1 Bft) 93,48 %
06.07.2018 04:54 15,6 C 14,4 C 15,0 C 90 % 1015,5 hPa 0,0 l/m 0 min 0 min 0 W/m 2,3 km/h (1 Bft) 97,87 %
06.07.2018 04:56 15,6 C 14,4 C 15,0 C 90 % 1015,5 hPa 0,0 l/m 0 min 0 min 0 W/m 2,3 km/h (1 Bft) 97,92 %
06.07.2018 04:58 15,6 C 14,4 C 15,0 C 90 % 1015,5 hPa 0,0 l/m 0 min 0 min 0 W/m 4,5 km/h (1 Bft) 93,62 %
06.07.2018 05:00 15,6 C 14,4 C 14,4 C 90 % 1015,5 hPa 0,0 l/m 0 min 0 min 0 W/m 2,3 km/h (1 Bft) 97,87 %
06.07.2018 05:02 15,5 C 14,4 C 14,4 C 90 % 1015,5 hPa 0,0 l/m 0 min 0 min 0 W/m 0,0 km/h (0 Bft) 95,65 %
06.07.2018 05:04 15,5 C 14,4 C 14,4 C 90 % 1015,5 hPa 0,0 l/m 0 min 0 min 0 W/m 0,0 km/h (0 Bft) 97,87 %
06.07.2018 05:06 15,5 C 14,4 C 14,4 C 90 % 1015,5 hPa 0,0 l/m 0 min 0 min 0 W/m 2,3 km/h (1 Bft) 97,87 %
06.07.2018 05:08 15,5 C 14,4 C 14,4 C 90 % 1015,5 hPa 0,0 l/m 0 min 0 min 0 W/m 2,3 km/h (1 Bft) 97,87 %
06.07.2018 05:10 15,5 C 14,4 C 14,4 C 90 % 1015,5 hPa 0,0 l/m 0 min 0 min 0 W/m 2,3 km/h (1 Bft) 95,74 %
06.07.2018 05:12 15,4 C 14,4 C 14,4 C 90 % 1015,5 hPa 0,0 l/m 0 min 0 min 0 W/m 0,0 km/h (0 Bft) 97,87 %
06.07.2018 05:14 15,4 C 14,4 C 14,4 C 90 % 1015,6 hPa 0,0 l/m 0 min 0 min 0 W/m 2,3 km/h (1 Bft) 95,74 %
06.07.2018 05:16 15,4 C 13,9 C 14,4 C 90 % 1015,6 hPa 0,0 l/m 0 min 0 min 0 W/m 4,5 km/h (1 Bft) 95,74 %
06.07.2018 05:18 15,4 C 13,9 C 14,4 C 90 % 1015,6 hPa 0,0 l/m 0 min 0 min 0 W/m 2,3 km/h (1 Bft) 97,87 %
06.07.2018 05:20 15,4 C 13,9 C 14,4 C 90 % 1015,6 hPa 0,0 l/m 0 min 0 min 0 W/m 2,3 km/h (1 Bft) 97,87 %
06.07.2018 05:22 15,4 C 13,9 C 14,4 C 90 % 1015,7 hPa 0,0 l/m 0 min 0 min 1 W/m 4,5 km/h (1 Bft) 97,87 %
06.07.2018 05:24 15,3 C 13,9 C 14,4 C 90 % 1015,7 hPa 0,0 l/m 0 min 0 min 5 W/m 4,5 km/h (1 Bft) 97,87 %
06.07.2018 05:26 15,3 C 13,9 C 14,4 C 90 % 1015,6 hPa 0,0 l/m 0 min 0 min 5 W/m 0,0 km/h (0 Bft) 95,65 %
06.07.2018 05:28 15,3 C 13,9 C 14,4 C 90 % 1015,7 hPa 0,0 l/m 0 min 0 min 5 W/m 4,5 km/h (1 Bft) 97,87 %
06.07.2018 05:30 15,3 C 13,9 C 14,4 C 90 % 1015,7 hPa 0,0 l/m 0 min 0 min 5 W/m 4,5 km/h (1 Bft) 97,87 %
06.07.2018 05:32 15,3 C 13,9 C 14,4 C 90 % 1015,7 hPa 0,0 l/m 0 min 0 min 7 W/m 0,0 km/h (0 Bft) 95,74 %
06.07.2018 05:34 15,2 C 13,9 C 14,4 C 91 % 1015,8 hPa 0,0 l/m 0 min 0 min 7 W/m 0,0 km/h (0 Bft) 97,87 %
06.07.2018 05:35 15,2 C 13,9 C 14,4 C 91 % 1015,8 hPa 0,0 l/m 0 min 0 min 7 W/m 0,0 km/h (0 Bft) 100,00 %
06.07.2018 05:40 15,2 C 13,9 C 14,4 C 91 % 1015,8 hPa 0,0 l/m 0 min 0 min 9 W/m 0,0 km/h (0 Bft) 100,00 %
06.07.2018 05:42 15,2 C 13,9 C 14,4 C 91 % 1015,8 hPa 0,0 l/m 0 min 0 min 11 W/m 0,0 km/h (0 Bft) 100,00 %
06.07.2018 05:44 15,2 C 13,9 C 14,4 C 91 % 1015,8 hPa 0,0 l/m 0 min 0 min 11 W/m 0,0 km/h (0 Bft) 100,00 %
06.07.2018 05:46 15,2 C 13,9 C 14,4 C 91 % 1015,8 hPa 0,0 l/m 0 min 0 min 12 W/m 0,0 km/h (0 Bft) 97,87 %
06.07.2018 05:48 15,1 C 13,9 C 14,4 C 91 % 1015,8 hPa 0,0 l/m 0 min 0 min 12 W/m 0,0 km/h (0 Bft) 100,00 %
06.07.2018 05:50 15,1 C 13,9 C 14,4 C 91 % 1015,7 hPa 0,0 l/m 0 min 0 min 13 W/m 0,0 km/h (0 Bft) 100,00 %
06.07.2018 05:52 15,1 C 13,9 C 14,4 C 91 % 1015,8 hPa 0,0 l/m 0 min 0 min 14 W/m 0,0 km/h (0 Bft) 97,37 %
06.07.2018 05:54 15,1 C 13,9 C 14,4 C 91 % 1015,8 hPa 0,0 l/m 0 min 0 min 16 W/m 0,0 km/h (0 Bft) 100,00 %
06.07.2018 05:56 15,1 C 13,9 C 14,4 C 91 % 1015,9 hPa 0,0 l/m 0 min 0 min 16 W/m 0,0 km/h (0 Bft) 97,83 %
06.07.2018 05:58 15,1 C 14,4 C 14,4 C 91 % 1015,9 hPa 0,0 l/m 0 min 0 min 18 W/m 0,0 km/h (0 Bft) 100,00 %
06.07.2018 06:00 15,1 C 14,4 C 14,4 C 91 % 1015,9 hPa 0,0 l/m 0 min 0 min 19 W/m 0,0 km/h (0 Bft) 100,00 %
06.07.2018 06:02 15,1 C 14,4 C 14,4 C 91 % 1016,0 hPa 0,0 l/m 0 min 0 min 19 W/m 0,0 km/h (0 Bft) 100,00 %
06.07.2018 06:04 15,1 C 14,4 C 14,4 C 91 % 1016,1 hPa 0,0 l/m 0 min 0 min 21 W/m 0,0 km/h (0 Bft) 100,00 %
06.07.2018 06:07 15,1 C 14,4 C 14,4 C 91 % 1016,1 hPa 0,0 l/m 0 min 0 min 23 W/m 2,3 km/h (1 Bft) 100,00 %
06.07.2018 06:08 15,1 C 14,4 C 14,4 C 92 % 1016,1 hPa 0,0 l/m 0 min 0 min 22 W/m 2,3 km/h (1 Bft) 100,00 %
06.07.2018 06:10 15,1 C 14,4 C 14,4 C 92 % 1016,2 hPa 0,0 l/m 0 min 0 min 25 W/m 0,0 km/h (0 Bft) 100,00 %
06.07.2018 06:12 15,0 C 13,9 C 14,4 C 92 % 1016,2 hPa 0,0 l/m 0 min 0 min 25 W/m 2,3 km/h (1 Bft) 100,00 %
06.07.2018 06:14 15,0 C 13,9 C 14,4 C 92 % 1016,3 hPa 0,0 l/m 0 min 0 min 26 W/m 2,3 km/h (1 Bft) 100,00 %
06.07.2018 06:16 15,0 C 13,9 C 14,4 C 92 % 1016,3 hPa 0,0 l/m 0 min 0 min 27 W/m 2,3 km/h (1 Bft) 100,00 %
06.07.2018 06:18 15,0 C 13,9 C 14,4 C 92 % 1016,3 hPa 0,0 l/m 0 min 0 min 28 W/m 2,3 km/h (1 Bft) 100,00 %
06.07.2018 06:20 15,0 C 13,9 C 14,4 C 92 % 1016,4 hPa 0,0 l/m 0 min 0 min 28 W/m 2,3 km/h (1 Bft) 97,87 %
06.07.2018 06:22 14,9 C 13,9 C 14,4 C 92 % 1016,5 hPa 0,0 l/m 0 min 0 min 31 W/m 2,3 km/h (1 Bft) 97,87 %
06.07.2018 06:24 14,9 C 13,9 C 14,4 C 92 % 1016,4 hPa 0,0 l/m 0 min 0 min 32 W/m 2,3 km/h (1 Bft) 97,83 %
06.07.2018 06:26 14,9 C 14,4 C 14,4 C 92 % 1016,5 hPa 0,0 l/m 0 min 0 min 39 W/m 4,5 km/h (1 Bft) 100,00 %
06.07.2018 06:28 14,9 C 14,4 C 14,4 C 92 % 1016,5 hPa 0,0 l/m 0 min 0 min 42 W/m 2,3 km/h (1 Bft) 100,00 %
06.07.2018 06:30 14,9 C 14,4 C 14,4 C 92 % 1016,5 hPa 0,0 l/m 0 min 0 min 44 W/m 4,5 km/h (1 Bft) 100,00 %
06.07.2018 06:32 14,9 C 14,4 C 14,4 C 92 % 1016,6 hPa 0,0 l/m 0 min 0 min 49 W/m 4,5 km/h (1 Bft) 97,92 %
06.07.2018 06:34 14,9 C 14,4 C 14,4 C 92 % 1016,6 hPa 0,0 l/m 0 min 0 min 49 W/m 4,5 km/h (1 Bft) 97,87 %
06.07.2018 06:36 14,9 C 15,0 C 14,4 C 92 % 1016,7 hPa 0,0 l/m 0 min 0 min 42 W/m 4,5 km/h (1 Bft) 100,00 %
06.07.2018 06:38 15,0 C 15,0 C 14,4 C 92 % 1016,7 hPa 0,0 l/m 0 min 0 min 42 W/m 13,5 km/h (3 Bft) 100,00 %
06.07.2018 06:40 15,0 C 15,0 C 15,0 C 92 % 1016,7 hPa 0,0 l/m 0 min 0 min 42 W/m 9,0 km/h (2 Bft) 97,87 %
06.07.2018 06:42 15,1 C 15,0 C 15,0 C 93 % 1016,7 hPa 0,0 l/m 0 min 0 min 46 W/m 6,8 km/h (2 Bft) 97,87 %
06.07.2018 06:44 15,1 C 15,0 C 15,0 C 93 % 1016,6 hPa 0,0 l/m 0 min 0 min 49 W/m 4,5 km/h (1 Bft) 95,74 %
06.07.2018 06:46 15,1 C 15,0 C 15,0 C 93 % 1016,7 hPa 0,0 l/m 0 min 0 min 47 W/m 9,0 km/h (2 Bft) 97,87 %
06.07.2018 06:48 15,2 C 15,0 C 15,0 C 93 % 1016,7 hPa 0,0 l/m 0 min 0 min 51 W/m 2,3 km/h (1 Bft) 95,65 %
06.07.2018 06:50 15,2 C 15,6 C 15,0 C 93 % 1016,7 hPa 0,0 l/m 0 min 0 min 54 W/m 2,3 km/h (1 Bft) 93,62 %
06.07.2018 06:52 15,2 C 15,6 C 15,0 C 93 % 1016,7 hPa 0,0 l/m 0 min 0 min 57 W/m 4,5 km/h (1 Bft) 95,74 %
06.07.2018 06:54 15,2 C 15,6 C 15,0 C 93 % 1016,7 hPa 0,0 l/m 0 min 0 min 56 W/m 9,0 km/h (2 Bft) 95,74 %
06.07.2018 06:56 15,2 C 15,6 C 15,0 C 93 % 1016,7 hPa 0,0 l/m 0 min 0 min 53 W/m 9,0 km/h (2 Bft) 95,74 %
06.07.2018 06:58 15,3 C 15,6 C 15,0 C 93 % 1016,7 hPa 0,0 l/m 0 min 0 min 56 W/m 0,0 km/h (0 Bft) 95,65 %
06.07.2018 07:00 15,3 C 15,6 C 15,0 C 93 % 1016,7 hPa 0,0 l/m 0 min 0 min 54 W/m 6,8 km/h (2 Bft) 93,62 %
06.07.2018 07:02 15,3 C 15,6 C 15,0 C 93 % 1016,8 hPa 0,0 l/m 0 min 0 min 54 W/m 0,0 km/h (0 Bft) 95,74 %
06.07.2018 07:04 15,3 C 15,6 C 15,0 C 93 % 1016,7 hPa 0,0 l/m 0 min 0 min 56 W/m 2,3 km/h (1 Bft) 95,74 %
06.07.2018 07:06 15,4 C 15,6 C 15,0 C 93 % 1016,8 hPa 0,0 l/m 0 min 0 min 53 W/m 6,8 km/h (2 Bft) 95,74 %
06.07.2018 07:08 15,4 C 15,6 C 15,0 C 93 % 1016,8 hPa 0,0 l/m 0 min 0 min 51 W/m 4,5 km/h (1 Bft) 95,74 %
06.07.2018 07:10 15,4 C 15,6 C 15,0 C 93 % 1016,8 hPa 0,0 l/m 0 min 0 min 48 W/m 9,0 km/h (2 Bft) 95,74 %
06.07.2018 07:12 15,4 C 15,6 C 15,0 C 93 % 1016,8 hPa 0,0 l/m 0 min 0 min 47 W/m 11,3 km/h (2 Bft) 95,65 %
06.07.2018 07:14 15,5 C 15,6 C 15,0 C 93 % 1016,9 hPa 0,0 l/m 0 min 0 min 48 W/m 4,5 km/h (1 Bft) 95,74 %
06.07.2018 07:16 15,5 C 15,6 C 15,0 C 93 % 1016,9 hPa 0,0 l/m 0 min 0 min 46 W/m 2,3 km/h (1 Bft) 95,74 %
06.07.2018 07:18 15,5 C 15,6 C 15,0 C 93 % 1016,9 hPa 0,0 l/m 0 min 0 min 48 W/m 4,5 km/h (1 Bft) 93,62 %
06.07.2018 07:20 15,6 C 15,6 C 15,0 C 93 % 1016,8 hPa 0,0 l/m 0 min 0 min 47 W/m 4,5 km/h (1 Bft) 93,62 %
06.07.2018 07:22 15,6 C 15,6 C 15,0 C 93 % 1016,9 hPa 0,0 l/m 0 min 0 min 50 W/m 6,8 km/h (2 Bft) 93,62 %
06.07.2018 07:24 15,6 C 15,6 C 15,0 C 93 % 1016,9 hPa 0,0 l/m 0 min 0 min 51 W/m 9,0 km/h (2 Bft) 97,83 %
06.07.2018 07:26 15,6 C 15,6 C 15,0 C 93 % 1016,9 hPa 0,0 l/m 0 min 0 min 51 W/m 6,8 km/h (2 Bft) 97,87 %
06.07.2018 07:28 15,7 C 15,6 C 15,0 C 93 % 1016,9 hPa 0,0 l/m 0 min 0 min 52 W/m 9,0 km/h (2 Bft) 97,87 %
06.07.2018 07:30 15,7 C 15,6 C 15,0 C 93 % 1016,8 hPa 0,0 l/m 0 min 0 min 57 W/m 11,3 km/h (2 Bft) 97,87 %
06.07.2018 07:32 15,7 C 15,6 C 15,0 C 93 % 1016,9 hPa 0,0 l/m 0 min 0 min 59 W/m 9,0 km/h (2 Bft) 97,87 %
06.07.2018 07:34 15,7 C 15,6 C 15,0 C 93 % 1016,9 hPa 0,0 l/m 0 min 0 min 58 W/m 11,3 km/h (2 Bft) 95,65 %
06.07.2018 07:36 15,7 C 15,6 C 15,0 C 93 % 1017,0 hPa 0,0 l/m 0 min 0 min 55 W/m 6,8 km/h (2 Bft) 97,87 %
06.07.2018 07:38 15,7 C 15,6 C 15,0 C 93 % 1017,0 hPa 0,0 l/m 0 min 0 min 59 W/m 11,3 km/h (2 Bft) 97,87 %
06.07.2018 07:40 15,7 C 16,1 C 15,0 C 93 % 1017,0 hPa 0,0 l/m 0 min 0 min 65 W/m 4,5 km/h (1 Bft) 100,00 %
06.07.2018 07:42 15,7 C 16,1 C 15,0 C 93 % 1017,0 hPa 0,0 l/m 0 min 0 min 78 W/m 6,8 km/h (2 Bft) 97,87 %
06.07.2018 07:44 15,8 C 16,1 C 15,6 C 93 % 1017,1 hPa 0,0 l/m 0 min 0 min 82 W/m 6,8 km/h (2 Bft) 100,00 %
06.07.2018 07:46 15,8 C 16,1 C 15,6 C 93 % 1017,1 hPa 0,0 l/m 0 min 0 min 78 W/m 6,8 km/h (2 Bft) 95,65 %
06.07.2018 07:48 15,8 C 16,1 C 15,6 C 93 % 1017,1 hPa 0,0 l/m 0 min 0 min 83 W/m 9,0 km/h (2 Bft) 97,87 %
06.07.2018 07:50 15,8 C 16,1 C 15,6 C 93 % 1017,0 hPa 0,0 l/m 0 min 0 min 87 W/m 11,3 km/h (2 Bft) 95,74 %
06.07.2018 07:52 15,8 C 16,1 C 15,6 C 92 % 1017,1 hPa 0,0 l/m 0 min 0 min 95 W/m 6,8 km/h (2 Bft) 97,87 %
06.07.2018 07:54 15,9 C 16,1 C 15,6 C 92 % 1017,1 hPa 0,0 l/m 0 min 0 min 85 W/m 11,3 km/h (2 Bft) 97,87 %
06.07.2018 07:56 15,9 C 16,7 C 15,6 C 92 % 1017,0 hPa 0,0 l/m 0 min 0 min 91 W/m 6,8 km/h (2 Bft) 95,74 %
06.07.2018 07:58 15,9 C 16,7 C 15,6 C 92 % 1017,0 hPa 0,0 l/m 0 min 0 min 98 W/m 4,5 km/h (1 Bft) 97,83 %
06.07.2018 08:00 15,9 C 16,7 C 15,6 C 92 % 1017,1 hPa 0,0 l/m 0 min 0 min 103 W/m 0,0 km/h (0 Bft) 97,87 %
06.07.2018 08:02 15,9 C 16,7 C 15,6 C 92 % 1017,0 hPa 0,0 l/m 0 min 0 min 109 W/m 6,8 km/h (2 Bft) 97,87 %
06.07.2018 08:04 16,0 C 16,7 C 15,6 C 92 % 1017,1 hPa 0,0 l/m 0 min 0 min 105 W/m 0,0 km/h (0 Bft) 97,87 %
06.07.2018 08:06 16,0 C 16,7 C 16,1 C 92 % 1017,1 hPa 0,0 l/m 0 min 0 min 119 W/m 4,5 km/h (1 Bft) 95,74 %
06.07.2018 08:08 16,1 C 17,2 C 16,1 C 92 % 1017,1 hPa 0,0 l/m 0 min 0 min 125 W/m 2,3 km/h (1 Bft) 95,74 %
06.07.2018 08:10 16,1 C 17,2 C 16,1 C 92 % 1017,1 hPa 0,0 l/m 0 min 0 min 124 W/m 4,5 km/h (1 Bft) 95,65 %
06.07.2018 08:12 16,2 C 17,2 C 16,1 C 92 % 1017,1 hPa 0,0 l/m 0 min 0 min 125 W/m 2,3 km/h (1 Bft) 97,87 %
06.07.2018 08:14 16,2 C 17,2 C 16,1 C 92 % 1017,1 hPa 0,0 l/m 0 min 0 min 126 W/m 4,5 km/h (1 Bft) 97,87 %
06.07.2018 08:16 16,2 C 17,2 C 16,1 C 91 % 1017,1 hPa 0,0 l/m 0 min 0 min 140 W/m 6,8 km/h (2 Bft) 97,87 %
06.07.2018 08:18 16,3 C 17,2 C 16,1 C 91 % 1017,2 hPa 0,0 l/m 0 min 0 min 133 W/m 4,5 km/h (1 Bft) 95,83 %
06.07.2018 08:20 16,3 C 17,2 C 16,1 C 91 % 1017,3 hPa 0,0 l/m 0 min 0 min 130 W/m 6,8 km/h (2 Bft) 97,83 %
06.07.2018 08:22 16,3 C 17,2 C 16,1 C 91 % 1017,2 hPa 0,0 l/m 0 min 0 min 125 W/m 9,0 km/h (2 Bft) 97,87 %
06.07.2018 08:24 16,3 C 17,2 C 16,1 C 91 % 1017,2 hPa 0,0 l/m 0 min 0 min 120 W/m 6,8 km/h (2 Bft) 95,74 %
06.07.2018 08:26 16,4 C 17,2 C 16,1 C 91 % 1017,2 hPa 0,0 l/m 0 min 0 min 126 W/m 9,0 km/h (2 Bft) 97,92 %
06.07.2018 08:28 16,4 C 17,2 C 16,1 C 91 % 1017,3 hPa 0,0 l/m 0 min 0 min 133 W/m 6,8 km/h (2 Bft) 97,87 %
06.07.2018 08:30 16,4 C 17,2 C 16,1 C 91 % 1017,3 hPa 0,0 l/m 0 min 0 min 135 W/m 6,8 km/h (2 Bft) 100,00 %
06.07.2018 08:32 16,5 C 17,2 C 16,1 C 91 % 1017,4 hPa 0,0 l/m 0 min 0 min 130 W/m 6,8 km/h (2 Bft) 100,00 %
06.07.2018 08:34 16,5 C 17,2 C 16,1 C 91 % 1017,4 hPa 0,0 l/m 0 min 0 min 133 W/m 4,5 km/h (1 Bft) 95,74 %
06.07.2018 08:36 16,6 C 17,2 C 16,1 C 90 % 1017,4 hPa 0,0 l/m 0 min 0 min 145 W/m 9,0 km/h (2 Bft) 100,00 %
06.07.2018 08:38 16,6 C 17,2 C 16,1 C 90 % 1017,5 hPa 0,0 l/m 0 min 0 min 137 W/m 6,8 km/h (2 Bft) 97,87 %
06.07.2018 08:40 16,6 C 17,2 C 16,1 C 90 % 1017,5 hPa 0,0 l/m 0 min 0 min 128 W/m 2,3 km/h (1 Bft) 100,00 %
06.07.2018 08:42 16,7 C 17,2 C 16,1 C 90 % 1017,4 hPa 0,0 l/m 0 min 0 min 127 W/m 6,8 km/h (2 Bft) 100,00 %
06.07.2018 08:44 16,7 C 17,2 C 16,1 C 90 % 1017,4 hPa 0,0 l/m 0 min 0 min 118 W/m 2,3 km/h (1 Bft) 100,00 %
06.07.2018 08:46 16,7 C 17,8 C 16,1 C 90 % 1017,5 hPa 0,0 l/m 0 min 0 min 114 W/m 6,8 km/h (2 Bft) 95,74 %
06.07.2018 08:48 16,8 C 17,8 C 16,7 C 90 % 1017,5 hPa 0,0 l/m 0 min 0 min 121 W/m 2,3 km/h (1 Bft) 100,00 %
06.07.2018 08:50 16,8 C 17,8 C 16,1 C 90 % 1017,6 hPa 0,0 l/m 0 min 0 min 132 W/m 6,8 km/h (2 Bft) 100,00 %
06.07.2018 08:52 16,8 C 17,8 C 16,1 C 89 % 1017,6 hPa 0,0 l/m 0 min 0 min 130 W/m 9,0 km/h (2 Bft) 100,00 %
06.07.2018 08:54 16,9 C 17,8 C 16,1 C 89 % 1017,6 hPa 0,0 l/m 0 min 0 min 132 W/m 9,0 km/h (2 Bft) 95,74 %
06.07.2018 08:56 16,9 C 17,8 C 16,1 C 89 % 1017,6 hPa 0,0 l/m 0 min 0 min 143 W/m 9,0 km/h (2 Bft) 100,00 %
06.07.2018 08:58 16,9 C 17,8 C 16,1 C 89 % 1017,6 hPa 0,0 l/m 0 min 0 min 153 W/m 4,5 km/h (1 Bft) 100,00 %
06.07.2018 09:00 16,9 C 17,8 C 16,1 C 89 % 1017,7 hPa 0,0 l/m 0 min 0 min 151 W/m 4,5 km/h (1 Bft) 97,87 %
06.07.2018 09:02 17,0 C 17,8 C 16,1 C 89 % 1017,7 hPa 0,0 l/m 0 min 0 min 159 W/m 11,3 km/h (2 Bft) 100,00 %
06.07.2018 09:04 17,0 C 17,8 C 16,7 C 89 % 1017,7 hPa 0,0 l/m 0 min 0 min 166 W/m 4,5 km/h (1 Bft) 100,00 %
06.07.2018 09:06 17,1 C 17,8 C 16,7 C 89 % 1017,8 hPa 0,0 l/m 0 min 0 min 179 W/m 4,5 km/h (1 Bft) 96,08 %
06.07.2018 09:08 17,1 C 17,8 C 16,7 C 88 % 1017,8 hPa 0,0 l/m 0 min 0 min 178 W/m 4,5 km/h (1 Bft) 97,92 %
06.07.2018 09:10 17,1 C 17,8 C 16,7 C 88 % 1017,8 hPa 0,0 l/m 0 min 0 min 169 W/m 6,8 km/h (2 Bft) 100,00 %
06.07.2018 09:12 17,2 C 17,8 C 16,7 C 88 % 1017,8 hPa 0,0 l/m 0 min 0 min 173 W/m 6,8 km/h (2 Bft) 97,87 %
06.07.2018 09:14 17,2 C 18,3 C 16,7 C 88 % 1017,7 hPa 0,0 l/m 0 min 0 min 169 W/m 6,8 km/h (2 Bft) 97,87 %
06.07.2018 09:16 17,2 C 18,3 C 16,7 C 88 % 1017,8 hPa 0,0 l/m 0 min 0 min 161 W/m 4,5 km/h (1 Bft) 100,00 %
06.07.2018 09:18 17,3 C 18,3 C 16,7 C 88 % 1017,8 hPa 0,0 l/m 0 min 0 min 177 W/m 6,8 km/h (2 Bft) 97,87 %
06.07.2018 09:20 17,3 C 18,3 C 16,7 C 88 % 1017,9 hPa 0,0 l/m 0 min 0 min 168 W/m 9,0 km/h (2 Bft) 98,18 %
06.07.2018 09:22 17,3 C 18,3 C 16,7 C 88 % 1017,9 hPa 0,0 l/m 0 min 0 min 193 W/m 6,8 km/h (2 Bft) 100,00 %
06.07.2018 09:24 17,3 C 18,3 C 16,7 C 87 % 1017,9 hPa 0,0 l/m 0 min 0 min 239 W/m 6,8 km/h (2 Bft) 100,00 %
06.07.2018 09:26 17,4 C 18,3 C 16,7 C 87 % 1017,8 hPa 0,0 l/m 0 min 0 min 257 W/m 6,8 km/h (2 Bft) 97,96 %
06.07.2018 09:28 17,4 C 18,9 C 16,7 C 87 % 1018,0 hPa 0,0 l/m 2 min 0 min 284 W/m 6,8 km/h (2 Bft) 97,87 %
06.07.2018 09:30 17,4 C 19,4 C 16,7 C 87 % 1017,9 hPa 0,0 l/m 0 min 0 min 266 W/m 6,8 km/h (2 Bft) 97,56 %
06.07.2018 09:32 17,5 C 18,9 C 16,7 C 87 % 1017,9 hPa 0,0 l/m 0 min 0 min 154 W/m 2,3 km/h (1 Bft) 98,00 %
06.07.2018 09:34 17,6 C 18,9 C 16,7 C 87 % 1018,0 hPa 0,0 l/m 0 min 0 min 170 W/m 6,8 km/h (2 Bft) 97,96 %
06.07.2018 09:36 17,6 C 18,9 C 17,2 C 87 % 1018,0 hPa 0,0 l/m 2 min 0 min 294 W/m 4,5 km/h (1 Bft) 95,74 %
06.07.2018 09:38 17,6 C 19,4 C 17,2 C 87 % 1018,0 hPa 0,0 l/m 0 min 0 min 262 W/m 6,8 km/h (2 Bft) 97,87 %
06.07.2018 09:40 17,7 C 19,4 C 17,2 C 87 % 1018,0 hPa 0,0 l/m 0 min 0 min 239 W/m 4,5 km/h (1 Bft) 97,56 %
06.07.2018 09:42 17,7 C 19,4 C 17,2 C 87 % 1018,0 hPa 0,0 l/m 0 min 0 min 231 W/m 9,0 km/h (2 Bft) 96,00 %
06.07.2018 09:44 17,8 C 18,9 C 17,2 C 87 % 1018,0 hPa 0,0 l/m 0 min 0 min 212 W/m 11,3 km/h (2 Bft) 97,96 %
06.07.2018 09:46 17,8 C 18,9 C 17,2 C 86 % 1018,1 hPa 0,0 l/m 0 min 0 min 199 W/m 9,0 km/h (2 Bft) 97,87 %
06.07.2018 09:48 17,8 C 18,9 C 17,2 C 86 % 1018,0 hPa 0,0 l/m 0 min 0 min 188 W/m 6,8 km/h (2 Bft) 95,74 %
06.07.2018 09:50 17,8 C 18,9 C 17,2 C 85 % 1018,0 hPa 0,0 l/m 0 min 0 min 199 W/m 6,8 km/h (2 Bft) 97,62 %
06.07.2018 09:52 17,9 C 18,9 C 17,2 C 85 % 1017,9 hPa 0,0 l/m 0 min 0 min 238 W/m 6,8 km/h (2 Bft) 97,83 %
06.07.2018 09:54 17,9 C 18,9 C 17,2 C 85 % 1018,0 hPa 0,0 l/m 0 min 0 min 238 W/m 4,5 km/h (1 Bft) 95,74 %
06.07.2018 09:56 17,9 C 19,4 C 17,2 C 85 % 1018,0 hPa 0,0 l/m 0 min 0 min 216 W/m 13,5 km/h (3 Bft) 96,00 %
06.07.2018 09:58 18,0 C 18,9 C 17,2 C 85 % 1018,0 hPa 0,0 l/m 0 min 0 min 196 W/m 11,3 km/h (2 Bft) 98,00 %
06.07.2018 10:00 18,0 C 18,9 C 17,2 C 85 % 1017,9 hPa 0,0 l/m 0 min 0 min 217 W/m 9,0 km/h (2 Bft) 97,87 %
06.07.2018 10:02 18,1 C 18,9 C 17,2 C 84 % 1017,9 hPa 0,0 l/m 0 min 0 min 214 W/m 11,3 km/h (2 Bft) 97,14 %
06.07.2018 10:04 18,1 C 18,9 C 17,2 C 84 % 1017,9 hPa 0,0 l/m 0 min 0 min 208 W/m 13,5 km/h (3 Bft) 98,18 %
06.07.2018 10:06 18,1 C 18,9 C 17,2 C 84 % 1017,9 hPa 0,0 l/m 0 min 0 min 214 W/m 6,8 km/h (2 Bft) 92,00 %
06.07.2018 10:08 18,2 C 18,9 C 17,2 C 84 % 1017,9 hPa 0,0 l/m 0 min 0 min 238 W/m 4,5 km/h (1 Bft) 95,74 %
06.07.2018 10:10 18,2 C 18,9 C 17,2 C 84 % 1017,9 hPa 0,0 l/m 0 min 0 min 240 W/m 9,0 km/h (2 Bft) 97,14 %
06.07.2018 10:12 18,2 C 18,9 C 17,2 C 83 % 1017,9 hPa 0,0 l/m 0 min 0 min 231 W/m 11,3 km/h (2 Bft) 94,64 %
06.07.2018 10:14 18,2 C 18,9 C 17,2 C 83 % 1017,9 hPa 0,0 l/m 0 min 0 min 228 W/m 9,0 km/h (2 Bft) 97,96 %
06.07.2018 10:16 18,3 C 19,4 C 17,2 C 83 % 1018,0 hPa 0,0 l/m 0 min 0 min 256 W/m 13,5 km/h (3 Bft) 95,74 %
06.07.2018 10:18 18,3 C 19,4 C 17,2 C 83 % 1018,0 hPa 0,0 l/m 0 min 0 min 270 W/m 13,5 km/h (3 Bft) 91,67 %
06.07.2018 10:20 18,3 C 19,4 C 17,8 C 82 % 1018,1 hPa 0,0 l/m 0 min 0 min 286 W/m 9,0 km/h (2 Bft) 94,55 %
06.07.2018 10:22 18,4 C 19,4 C 17,8 C 82 % 1018,0 hPa 0,0 l/m 0 min 0 min 249 W/m 9,0 km/h (2 Bft) 96,00 %
06.07.2018 10:24 18,4 C 19,4 C 17,8 C 82 % 1018,1 hPa 0,0 l/m 0 min 0 min 232 W/m 15,8 km/h (3 Bft) 97,83 %
06.07.2018 10:26 18,4 C 19,4 C 17,8 C 82 % 1018,2 hPa 0,0 l/m 0 min 0 min 219 W/m 15,8 km/h (3 Bft) 93,88 %
06.07.2018 10:28 18,4 C 19,4 C 17,2 C 82 % 1018,2 hPa 0,0 l/m 0 min 0 min 215 W/m 13,5 km/h (3 Bft) 97,14 %
06.07.2018 10:30 18,5 C 19,4 C 17,2 C 82 % 1018,2 hPa 0,0 l/m 0 min 0 min 225 W/m 13,5 km/h (3 Bft) 94,44 %
06.07.2018 10:32 18,5 C 19,4 C 17,2 C 82 % 1018,2 hPa 0,0 l/m 0 min 0 min 231 W/m 13,5 km/h (3 Bft) 96,00 %
06.07.2018 10:34 18,5 C 19,4 C 17,2 C 82 % 1018,2 hPa 0,0 l/m 0 min 0 min 238 W/m 9,0 km/h (2 Bft) 93,62 %
06.07.2018 10:36 18,6 C 19,4 C 17,8 C 82 % 1018,2 hPa 0,0 l/m 0 min 0 min 252 W/m 9,0 km/h (2 Bft) 95,65 %
06.07.2018 10:38 18,6 C 19,4 C 17,8 C 82 % 1018,1 hPa 0,0 l/m 0 min 0 min 256 W/m 6,8 km/h (2 Bft) 95,74 %
06.07.2018 10:40 18,6 C 19,4 C 17,8 C 82 % 1018,1 hPa 0,0 l/m 0 min 0 min 255 W/m 9,0 km/h (2 Bft) 95,74 %
06.07.2018 10:42 18,6 C 20,0 C 17,8 C 82 % 1018,1 hPa 0,0 l/m 0 min 0 min 281 W/m 6,8 km/h (2 Bft) 95,74 %
06.07.2018 10:44 18,7 C 20,0 C 17,8 C 82 % 1018,2 hPa 0,0 l/m 0 min 0 min 340 W/m 9,0 km/h (2 Bft) 93,62 %
06.07.2018 10:46 18,7 C 20,6 C 17,8 C 82 % 1018,2 hPa 0,0 l/m 2 min 0 min 357 W/m 4,5 km/h (1 Bft) 95,74 %
06.07.2018 10:48 18,7 C 21,1 C 17,8 C 82 % 1018,1 hPa 0,0 l/m 2 min 0 min 364 W/m 11,3 km/h (2 Bft) 95,65 %
06.07.2018 10:50 18,8 C 21,7 C 18,3 C 82 % 1018,2 hPa 0,0 l/m 2 min 0 min 352 W/m 11,3 km/h (2 Bft) 93,62 %
06.07.2018 10:52 18,8 C 21,7 C 18,3 C 82 % 1018,2 hPa 0,0 l/m 2 min 0 min 396 W/m 9,0 km/h (2 Bft) 95,74 %
06.07.2018 10:54 18,9 C 21,7 C 18,3 C 82 % 1018,3 hPa 0,0 l/m 0 min 0 min 334 W/m 9,0 km/h (2 Bft) 95,74 %
06.07.2018 10:56 18,9 C 21,7 C 18,3 C 82 % 1018,2 hPa 0,0 l/m 0 min 0 min 253 W/m 9,0 km/h (2 Bft) 97,87 %
06.07.2018 10:58 19,0 C 21,1 C 18,3 C 81 % 1018,3 hPa 0,0 l/m 0 min 0 min 266 W/m 11,3 km/h (2 Bft) 97,87 %
06.07.2018 11:00 19,1 C 22,2 C 18,3 C 81 % 1018,2 hPa 0,0 l/m 0 min 0 min 347 W/m 4,5 km/h (1 Bft) 95,65 %
06.07.2018 11:02 19,1 C 23,3 C 18,3 C 80 % 1018,2 hPa 0,0 l/m 2 min 0 min 366 W/m 11,3 km/h (2 Bft) 97,87 %
06.07.2018 11:04 19,2 C 23,3 C 18,3 C 80 % 1018,2 hPa 0,0 l/m 0 min 0 min 317 W/m 6,8 km/h (2 Bft) 100,00 %
06.07.2018 11:06 19,3 C 25,6 C 18,9 C 80 % 1018,2 hPa 0,0 l/m 2 min 0 min 867 W/m 2,3 km/h (1 Bft) 95,74 %
06.07.2018 11:08 19,4 C 24,4 C 18,9 C 80 % 1018,0 hPa 0,0 l/m 2 min 0 min 875 W/m 9,0 km/h (2 Bft) 100,00 %
06.07.2018 11:10 19,4 C 23,3 C 18,9 C 80 % 1018,2 hPa 0,0 l/m 2 min 0 min 483 W/m 9,0 km/h (2 Bft) 95,74 %
06.07.2018 11:12 19,6 C 22,8 C 18,9 C 80 % 1018,2 hPa 0,0 l/m 2 min 0 min 380 W/m 11,3 km/h (2 Bft) 100,00 %
06.07.2018 11:14 19,7 C 22,8 C 18,9 C 79 % 1018,2 hPa 0,0 l/m 2 min 0 min 456 W/m 11,3 km/h (2 Bft) 100,00 %
06.07.2018 11:16 19,8 C 22,8 C 18,9 C 80 % 1018,3 hPa 0,0 l/m 2 min 0 min 387 W/m 6,8 km/h (2 Bft) 100,00 %
06.07.2018 11:18 19,8 C 22,8 C 18,9 C 79 % 1018,3 hPa 0,0 l/m 0 min 0 min 286 W/m 4,5 km/h (1 Bft) 100,00 %
06.07.2018 11:20 19,9 C 25,0 C 18,9 C 79 % 1018,3 hPa 0,0 l/m 2 min 0 min 385 W/m 4,5 km/h (1 Bft) 100,00 %
06.07.2018 11:22 20,0 C 26,7 C 18,9 C 78 % 1018,2 hPa 0,0 l/m 2 min 0 min 864 W/m 6,8 km/h (2 Bft) 97,14 %
06.07.2018 11:24 20,1 C 27,2 C 19,4 C 78 % 1018,3 hPa 0,0 l/m 2 min 0 min 873 W/m 6,8 km/h (2 Bft) 100,00 %
06.07.2018 11:26 20,2 C 29,4 C 19,4 C 79 % 1018,3 hPa 0,0 l/m 2 min 0 min 780 W/m 11,3 km/h (2 Bft) 100,00 %
06.07.2018 11:28 20,4 C 29,4 C 19,4 C 78 % 1018,3 hPa 0,0 l/m 2 min 0 min 707 W/m 4,5 km/h (1 Bft) 100,00 %
06.07.2018 11:30 20,6 C 29,4 C 19,4 C 78 % 1018,3 hPa 0,0 l/m 2 min 0 min 796 W/m 4,5 km/h (1 Bft) 100,00 %
06.07.2018 11:32 20,8 C 29,4 C 19,4 C 77 % 1018,3 hPa 0,0 l/m 2 min 0 min 796 W/m 9,0 km/h (2 Bft) 97,87 %
06.07.2018 11:34 21,0 C 30,6 C 19,4 C 75 % 1018,3 hPa 0,0 l/m 2 min 0 min 801 W/m 11,3 km/h (2 Bft) 100,00 %
06.07.2018 11:36 21,1 C 28,9 C 18,9 C 74 % 1018,3 hPa 0,0 l/m 2 min 0 min 800 W/m 6,8 km/h (2 Bft) 100,00 %
06.07.2018 11:38 21,2 C 30,0 C 19,4 C 73 % 1018,3 hPa 0,0 l/m 2 min 0 min 788 W/m 6,8 km/h (2 Bft) 100,00 %
06.07.2018 11:40 21,4 C 29,4 C 19,4 C 73 % 1018,3 hPa 0,0 l/m 2 min 0 min 788 W/m 18,0 km/h (3 Bft) 100,00 %
06.07.2018 11:42 21,5 C 30,6 C 19,4 C 73 % 1018,3 hPa 0,0 l/m 2 min 0 min 804 W/m 6,8 km/h (2 Bft) 100,00 %
06.07.2018 11:44 21,7 C 31,7 C 19,4 C 73 % 1018,3 hPa 0,0 l/m 2 min 0 min 834 W/m 4,5 km/h (1 Bft) 100,00 %
06.07.2018 11:46 21,8 C 31,7 C 20,0 C 73 % 1018,4 hPa 0,0 l/m 2 min 0 min 851 W/m 4,5 km/h (1 Bft) 97,87 %
06.07.2018 11:48 22,0 C 31,7 C 20,0 C 72 % 1018,4 hPa 0,0 l/m 2 min 0 min 910 W/m 6,8 km/h (2 Bft) 100,00 %
06.07.2018 11:50 22,1 C 28,3 C 20,0 C 72 % 1018,3 hPa 0,0 l/m 2 min 0 min 793 W/m 11,3 km/h (2 Bft) 100,00 %
06.07.2018 11:52 22,1 C 25,0 C 20,0 C 70 % 1018,3 hPa 0,0 l/m 0 min 0 min 367 W/m 13,5 km/h (3 Bft) 100,00 %
06.07.2018 11:54 22,1 C 23,9 C 20,0 C 70 % 1018,3 hPa 0,0 l/m 0 min 0 min 196 W/m 6,8 km/h (2 Bft) 100,00 %
06.07.2018 11:56 22,1 C 22,8 C 20,0 C 70 % 1018,3 hPa 0,0 l/m 0 min 0 min 167 W/m 2,3 km/h (1 Bft) 97,56 %
06.07.2018 11:58 22,1 C 25,6 C 20,0 C 71 % 1018,3 hPa 0,0 l/m 0 min 0 min 163 W/m 6,8 km/h (2 Bft) 100,00 %
06.07.2018 12:00 22,2 C 27,2 C 20,0 C 71 % 1018,3 hPa 0,0 l/m 2 min 0 min 791 W/m 4,5 km/h (1 Bft) 100,00 %
06.07.2018 12:02 22,2 C 30,0 C 20,6 C 72 % 1018,3 hPa 0,0 l/m 2 min 0 min 785 W/m 11,3 km/h (2 Bft) 100,00 %
06.07.2018 12:04 22,3 C 30,6 C 20,6 C 71 % 1018,3 hPa 0,0 l/m 2 min 0 min 784 W/m 9,0 km/h (2 Bft) 100,00 %
06.07.2018 12:07 22,5 C 31,7 C 20,6 C 70 % 1018,3 hPa 0,0 l/m 3 min 0 min 812 W/m 9,0 km/h (2 Bft) 100,00 %
06.07.2018 12:08 22,6 C 32,2 C 20,6 C 70 % 1018,3 hPa 0,0 l/m 1 min 0 min 806 W/m 13,5 km/h (3 Bft) 100,00 %
06.07.2018 12:10 22,7 C 32,2 C 20,6 C 69 % 1018,3 hPa 0,0 l/m 2 min 0 min 805 W/m 9,0 km/h (2 Bft) 100,00 %
06.07.2018 12:12 22,8 C 31,1 C 20,6 C 68 % 1018,3 hPa 0,0 l/m 2 min 0 min 804 W/m 9,0 km/h (2 Bft) 100,00 %
06.07.2018 12:14 22,9 C 31,7 C 20,6 C 70 % 1018,2 hPa 0,0 l/m 2 min 0 min 806 W/m 4,5 km/h (1 Bft) 100,00 %
06.07.2018 12:16 23,0 C 32,2 C 20,6 C 69 % 1018,2 hPa 0,0 l/m 2 min 0 min 820 W/m 11,3 km/h (2 Bft) 100,00 %
06.07.2018 12:18 23,2 C 32,2 C 20,6 C 69 % 1018,3 hPa 0,0 l/m 2 min 0 min 826 W/m 15,8 km/h (3 Bft) 100,00 %
06.07.2018 12:20 23,3 C 32,2 C 21,1 C 69 % 1018,3 hPa 0,0 l/m 2 min 0 min 840 W/m 9,0 km/h (2 Bft) 100,00 %
06.07.2018 12:22 23,4 C 31,7 C 21,1 C 68 % 1018,3 hPa 0,0 l/m 2 min 0 min 872 W/m 9,0 km/h (2 Bft) 97,87 %
06.07.2018 12:24 23,6 C 31,1 C 21,1 C 67 % 1018,3 hPa 0,0 l/m 2 min 0 min 863 W/m 9,0 km/h (2 Bft) 97,87 %
06.07.2018 12:26 23,7 C 30,6 C 21,1 C 67 % 1018,3 hPa 0,0 l/m 2 min 0 min 856 W/m 4,5 km/h (1 Bft) 100,00 %
06.07.2018 12:28 23,7 C 30,6 C 21,7 C 66 % 1018,3 hPa 0,0 l/m 2 min 0 min 852 W/m 6,8 km/h (2 Bft) 100,00 %
06.07.2018 12:30 23,9 C 31,1 C 21,7 C 67 % 1018,3 hPa 0,0 l/m 2 min 0 min 882 W/m 13,5 km/h (3 Bft) 97,87 %
06.07.2018 12:32 23,9 C 31,7 C 21,1 C 66 % 1018,3 hPa 0,0 l/m 2 min 0 min 847 W/m 13,5 km/h (3 Bft) 95,65 %
06.07.2018 12:34 24,1 C 32,2 C 21,1 C 66 % 1018,3 hPa 0,0 l/m 2 min 0 min 808 W/m 11,3 km/h (2 Bft) 95,74 %
06.07.2018 12:36 24,2 C 32,2 C 21,1 C 65 % 1018,3 hPa 0,0 l/m 2 min 0 min 844 W/m 4,5 km/h (1 Bft) 97,92 %
06.07.2018 12:38 24,2 C 33,3 C 21,1 C 67 % 1018,3 hPa 0,0 l/m 2 min 0 min 844 W/m 4,5 km/h (1 Bft) 97,87 %
06.07.2018 12:40 24,3 C 32,2 C 21,1 C 65 % 1018,3 hPa 0,0 l/m 2 min 0 min 808 W/m 15,8 km/h (3 Bft) 97,87 %
06.07.2018 12:42 24,4 C 32,2 C 21,7 C 65 % 1018,3 hPa 0,0 l/m 2 min 0 min 873 W/m 11,3 km/h (2 Bft) 97,87 %
06.07.2018 12:44 24,4 C 32,2 C 21,7 C 65 % 1018,3 hPa 0,0 l/m 2 min 0 min 854 W/m 6,8 km/h (2 Bft) 97,83 %
06.07.2018 12:46 24,6 C 32,2 C 21,7 C 65 % 1018,2 hPa 0,0 l/m 2 min 0 min 868 W/m 6,8 km/h (2 Bft) 97,87 %
06.07.2018 12:48 24,7 C 32,8 C 21,7 C 66 % 1018,3 hPa 0,0 l/m 2 min 0 min 874 W/m 9,0 km/h (2 Bft) 97,87 %
06.07.2018 12:50 24,7 C 31,7 C 21,7 C 64 % 1018,2 hPa 0,0 l/m 2 min 0 min 819 W/m 4,5 km/h (1 Bft) 95,74 %
06.07.2018 12:52 24,8 C 32,8 C 21,7 C 64 % 1018,3 hPa 0,0 l/m 2 min 0 min 849 W/m 6,8 km/h (2 Bft) 95,83 %
06.07.2018 12:54 24,9 C 32,8 C 21,7 C 64 % 1018,3 hPa 0,0 l/m 2 min 0 min 875 W/m 15,8 km/h (3 Bft) 97,14 %
06.07.2018 12:56 24,9 C 31,1 C 21,7 C 62 % 1018,3 hPa 0,0 l/m 2 min 0 min 880 W/m 18,0 km/h (3 Bft) 94,83 %
06.07.2018 12:58 24,9 C 32,2 C 21,7 C 63 % 1018,3 hPa 0,0 l/m 2 min 0 min 885 W/m 11,3 km/h (2 Bft) 94,44 %
06.07.2018 13:00 24,9 C 31,1 C 21,7 C 62 % 1018,3 hPa 0,0 l/m 2 min 0 min 903 W/m 6,8 km/h (2 Bft) 94,83 %
06.07.2018 13:02 25,0 C 31,7 C 22,2 C 63 % 1018,3 hPa 0,0 l/m 2 min 0 min 927 W/m 6,8 km/h (2 Bft) 95,74 %
06.07.2018 13:04 25,1 C 32,2 C 22,2 C 63 % 1018,3 hPa 0,0 l/m 2 min 0 min 930 W/m 15,8 km/h (3 Bft) 95,74 %
06.07.2018 13:06 25,1 C 32,2 C 21,7 C 63 % 1018,3 hPa 0,0 l/m 2 min 0 min 914 W/m 13,5 km/h (3 Bft) 95,74 %
06.07.2018 13:08 25,1 C 32,8 C 22,2 C 63 % 1018,4 hPa 0,0 l/m 2 min 0 min 897 W/m 13,5 km/h (3 Bft) 94,29 %
06.07.2018 13:10 25,1 C 31,1 C 22,8 C 62 % 1018,3 hPa 0,0 l/m 2 min 0 min 923 W/m 6,8 km/h (2 Bft) 95,65 %
06.07.2018 13:12 25,1 C 31,7 C 22,8 C 62 % 1018,3 hPa 0,0 l/m 2 min 0 min 951 W/m 4,5 km/h (1 Bft) 93,62 %
06.07.2018 13:14 25,2 C 32,2 C 22,8 C 63 % 1018,3 hPa 0,0 l/m 2 min 0 min 951 W/m 4,5 km/h (1 Bft) 93,75 %
06.07.2018 13:16 25,3 C 30,6 C 22,8 C 63 % 1018,3 hPa 0,0 l/m 2 min 0 min 919 W/m 13,5 km/h (3 Bft) 95,65 %
06.07.2018 13:18 25,2 C 30,0 C 22,8 C 61 % 1018,3 hPa 0,0 l/m 2 min 0 min 493 W/m 6,8 km/h (2 Bft) 93,62 %
06.07.2018 13:20 25,2 C 31,1 C 22,2 C 61 % 1018,3 hPa 0,0 l/m 2 min 0 min 929 W/m 13,5 km/h (3 Bft) 91,67 %
06.07.2018 13:22 25,2 C 31,7 C 22,8 C 62 % 1018,4 hPa 0,0 l/m 2 min 0 min 929 W/m 9,0 km/h (2 Bft) 93,62 %
06.07.2018 13:24 25,3 C 32,8 C 22,8 C 61 % 1018,3 hPa 0,0 l/m 2 min 0 min 961 W/m 6,8 km/h (2 Bft) 93,62 %
06.07.2018 13:26 25,3 C 30,6 C 23,3 C 61 % 1018,3 hPa 0,0 l/m 2 min 0 min 977 W/m 9,0 km/h (2 Bft) 93,48 %
06.07.2018 13:28 25,3 C 27,8 C 22,8 C 60 % 1018,2 hPa 0,0 l/m 2 min 0 min 575 W/m 11,3 km/h (2 Bft) 91,49 %
06.07.2018 13:30 25,2 C 29,4 C 22,8 C 61 % 1018,2 hPa 0,0 l/m 2 min 0 min 473 W/m 15,8 km/h (3 Bft) 93,62 %
06.07.2018 13:32 25,2 C 31,1 C 22,8 C 61 % 1018,2 hPa 0,0 l/m 2 min 0 min 901 W/m 9,0 km/h (2 Bft) 91,49 %
06.07.2018 13:34 25,2 C 31,7 C 23,3 C 62 % 1018,2 hPa 0,0 l/m 2 min 0 min 906 W/m 13,5 km/h (3 Bft) 93,62 %
06.07.2018 13:36 25,2 C 31,1 C 23,3 C 61 % 1018,2 hPa 0,0 l/m 2 min 0 min 910 W/m 9,0 km/h (2 Bft) 95,74 %
06.07.2018 13:38 25,3 C 31,7 C 23,3 C 61 % 1018,2 hPa 0,0 l/m 2 min 0 min 909 W/m 9,0 km/h (2 Bft) 95,65 %
06.07.2018 13:40 25,3 C 30,6 C 23,3 C 61 % 1018,3 hPa 0,0 l/m 2 min 0 min 898 W/m 15,8 km/h (3 Bft) 95,74 %
06.07.2018 13:42 25,3 C 28,3 C 23,3 C 61 % 1018,3 hPa 0,0 l/m 2 min 0 min 908 W/m 22,5 km/h (4 Bft) 95,74 %
06.07.2018 13:44 25,3 C 26,7 C 23,3 C 61 % 1018,3 hPa 0,0 l/m 2 min 0 min 917 W/m 11,3 km/h (2 Bft) 95,83 %
06.07.2018 13:46 25,3 C 26,7 C 23,3 C 61 % 1018,2 hPa 0,0 l/m 2 min 0 min 919 W/m 11,3 km/h (2 Bft) 95,74 %
06.07.2018 13:48 25,3 C 26,1 C 23,3 C 60 % 1018,3 hPa 0,0 l/m 2 min 0 min 919 W/m 11,3 km/h (2 Bft) 95,74 %
06.07.2018 13:50 25,3 C 26,1 C 23,3 C 61 % 1018,3 hPa 0,0 l/m 2 min 0 min 919 W/m 15,8 km/h (3 Bft) 95,65 %
06.07.2018 13:52 25,2 C 25,6 C 23,3 C 61 % 1018,3 hPa 0,0 l/m 2 min 0 min 912 W/m 18,0 km/h (3 Bft) 95,74 %
06.07.2018 13:54 25,2 C 25,6 C 23,3 C 60 % 1018,3 hPa 0,0 l/m 2 min 0 min 911 W/m 13,5 km/h (3 Bft) 93,75 %
06.07.2018 13:56 25,2 C 25,6 C 23,3 C 60 % 1018,4 hPa 0,0 l/m 2 min 0 min 926 W/m 11,3 km/h (2 Bft) 97,87 %
06.07.2018 13:58 25,2 C 25,6 C 23,3 C 61 % 1018,3 hPa 0,0 l/m 2 min 0 min 927 W/m 15,8 km/h (3 Bft) 97,87 %
06.07.2018 14:00 25,2 C 26,1 C 23,3 C 61 % 1018,3 hPa 0,0 l/m 2 min 0 min 942 W/m 6,8 km/h (2 Bft) 97,87 %
06.07.2018 14:02 25,2 C 26,1 C 23,3 C 60 % 1018,3 hPa 0,0 l/m 2 min 0 min 948 W/m 6,8 km/h (2 Bft) 97,87 %
06.07.2018 14:04 25,2 C 25,6 C 22,8 C 61 % 1018,3 hPa 0,0 l/m 2 min 0 min 956 W/m 18,0 km/h (3 Bft) 97,87 %
06.07.2018 14:06 25,2 C 25,6 C 22,8 C 62 % 1018,2 hPa 0,0 l/m 2 min 0 min 943 W/m 13,5 km/h (3 Bft) 95,74 %
06.07.2018 14:08 25,2 C 25,6 C 23,3 C 61 % 1018,2 hPa 0,0 l/m 2 min 0 min 932 W/m 11,3 km/h (2 Bft) 100,00 %
06.07.2018 14:10 25,1 C 25,6 C 22,8 C 61 % 1018,3 hPa 0,0 l/m 2 min 0 min 927 W/m 13,5 km/h (3 Bft) 100,00 %
06.07.2018 14:12 25,1 C 25,6 C 22,8 C 60 % 1018,3 hPa 0,0 l/m 2 min 0 min 903 W/m 20,3 km/h (4 Bft) 100,00 %
06.07.2018 14:14 25,1 C 25,6 C 22,8 C 60 % 1018,3 hPa 0,0 l/m 2 min 0 min 931 W/m 11,3 km/h (2 Bft) 97,87 %
06.07.2018 14:16 25,1 C 25,6 C 23,3 C 60 % 1018,2 hPa 0,0 l/m 2 min 0 min 963 W/m 6,8 km/h (2 Bft) 97,87 %
06.07.2018 14:18 25,1 C 26,1 C 23,3 C 61 % 1018,2 hPa 0,0 l/m 2 min 0 min 930 W/m 13,5 km/h (3 Bft) 100,00 %
06.07.2018 14:20 25,1 C 26,1 C 23,3 C 61 % 1018,2 hPa 0,0 l/m 2 min 0 min 889 W/m 9,0 km/h (2 Bft) 100,00 %
06.07.2018 14:22 25,1 C 26,7 C 23,9 C 61 % 1018,1 hPa 0,0 l/m 2 min 0 min 949 W/m 6,8 km/h (2 Bft) 100,00 %
06.07.2018 14:24 25,2 C 26,7 C 23,9 C 61 % 1018,1 hPa 0,0 l/m 2 min 0 min 966 W/m 11,3 km/h (2 Bft) 97,87 %
06.07.2018 14:26 25,2 C 26,7 C 23,9 C 61 % 1018,1 hPa 0,0 l/m 2 min 0 min 975 W/m 13,5 km/h (3 Bft) 100,00 %
06.07.2018 14:28 25,3 C 26,7 C 23,9 C 61 % 1018,2 hPa 0,0 l/m 2 min 0 min 970 W/m 9,0 km/h (2 Bft) 100,00 %
06.07.2018 14:30 25,3 C 26,7 C 23,9 C 60 % 1018,2 hPa 0,0 l/m 2 min 0 min 935 W/m 13,5 km/h (3 Bft) 100,00 %
06.07.2018 14:32 25,4 C 26,7 C 23,9 C 59 % 1018,1 hPa 0,0 l/m 2 min 0 min 890 W/m 11,3 km/h (2 Bft) 100,00 %
06.07.2018 14:34 25,4 C 26,1 C 23,9 C 59 % 1018,2 hPa 0,0 l/m 2 min 0 min 491 W/m 18,0 km/h (3 Bft) 100,00 %
06.07.2018 14:36 25,4 C 26,1 C 23,9 C 59 % 1018,2 hPa 0,0 l/m 2 min 0 min 534 W/m 11,3 km/h (2 Bft) 100,00 %
06.07.2018 14:38 25,4 C 26,1 C 23,3 C 59 % 1018,1 hPa 0,0 l/m 2 min 0 min 967 W/m 13,5 km/h (3 Bft) 100,00 %
06.07.2018 14:40 25,5 C 26,7 C 23,3 C 60 % 1018,3 hPa 0,0 l/m 2 min 0 min 964 W/m 18,0 km/h (3 Bft) 100,00 %
06.07.2018 14:42 25,5 C 26,7 C 23,9 C 60 % 1018,3 hPa 0,2 l/m 2 min 0 min 959 W/m 11,3 km/h (2 Bft) 100,00 %
06.07.2018 14:44 25,6 C 27,2 C 23,9 C 59 % 1018,2 hPa 0,0 l/m 2 min 0 min 989 W/m 6,8 km/h (2 Bft) 100,00 %
06.07.2018 14:46 25,6 C 27,2 C 23,9 C 60 % 1018,2 hPa 0,0 l/m 2 min 0 min 999 W/m 6,8 km/h (2 Bft) 100,00 %
06.07.2018 14:48 25,7 C 27,2 C 23,9 C 60 % 1018,2 hPa 0,0 l/m 2 min 0 min 706 W/m 13,5 km/h (3 Bft) 100,00 %
06.07.2018 14:50 25,7 C 26,7 C 23,9 C 59 % 1018,1 hPa 0,0 l/m 0 min 0 min 328 W/m 9,0 km/h (2 Bft) 100,00 %
06.07.2018 14:52 25,7 C 26,7 C 23,9 C 60 % 1018,1 hPa 0,0 l/m 0 min 0 min 328 W/m 9,0 km/h (2 Bft) 100,00 %
06.07.2018 14:54 25,7 C 26,1 C 23,3 C 60 % 1018,1 hPa 0,0 l/m 0 min 0 min 281 W/m 18,0 km/h (3 Bft) 100,00 %
06.07.2018 14:56 25,7 C 26,1 C 23,3 C 59 % 1018,0 hPa 0,0 l/m 0 min 0 min 326 W/m 18,0 km/h (3 Bft) 97,62 %
06.07.2018 14:58 25,7 C 26,1 C 23,3 C 59 % 1018,1 hPa 0,0 l/m 0 min 0 min 320 W/m 20,3 km/h (4 Bft) 100,00 %
06.07.2018 15:00 25,7 C 26,1 C 23,3 C 59 % 1018,1 hPa 0,0 l/m 0 min 0 min 281 W/m 9,0 km/h (2 Bft) 100,00 %
06.07.2018 15:02 25,6 C 26,1 C 23,3 C 60 % 1018,1 hPa 0,0 l/m 2 min 0 min 835 W/m 9,0 km/h (2 Bft) 100,00 %
06.07.2018 15:04 25,6 C 26,7 C 23,3 C 60 % 1018,0 hPa 0,0 l/m 2 min 0 min 892 W/m 9,0 km/h (2 Bft) 100,00 %
06.07.2018 15:06 25,6 C 27,2 C 23,9 C 61 % 1018,1 hPa 0,0 l/m 2 min 0 min 904 W/m 6,8 km/h (2 Bft) 100,00 %
06.07.2018 15:08 25,7 C 26,7 C 23,9 C 59 % 1018,1 hPa 0,0 l/m 2 min 0 min 883 W/m 6,8 km/h (2 Bft) 100,00 %
06.07.2018 15:10 25,7 C 26,7 C 23,9 C 60 % 1018,1 hPa 0,0 l/m 2 min 0 min 890 W/m 15,8 km/h (3 Bft) 100,00 %
06.07.2018 15:12 25,7 C 26,7 C 23,9 C 59 % 1018,1 hPa 0,0 l/m 2 min 0 min 443 W/m 11,3 km/h (2 Bft) 100,00 %
06.07.2018 15:14 25,8 C 27,2 C 23,9 C 59 % 1018,1 hPa 0,0 l/m 2 min 0 min 922 W/m 13,5 km/h (3 Bft) 100,00 %
06.07.2018 15:16 25,8 C 26,7 C 23,9 C 58 % 1018,0 hPa 0,0 l/m 2 min 0 min 913 W/m 18,0 km/h (3 Bft) 97,87 %
06.07.2018 15:18 25,8 C 26,7 C 23,9 C 59 % 1018,0 hPa 0,0 l/m 2 min 0 min 910 W/m 6,8 km/h (2 Bft) 100,00 %
06.07.2018 15:20 25,8 C 27,2 C 23,9 C 59 % 1018,0 hPa 0,0 l/m 2 min 0 min 803 W/m 6,8 km/h (2 Bft) 100,00 %
06.07.2018 15:22 25,9 C 27,2 C 23,9 C 59 % 1018,1 hPa 0,0 l/m 2 min 0 min 599 W/m 15,8 km/h (3 Bft) 97,87 %
06.07.2018 15:24 25,9 C 27,2 C 23,9 C 58 % 1018,0 hPa 0,0 l/m 2 min 0 min 852 W/m 9,0 km/h (2 Bft) 97,83 %
06.07.2018 15:26 25,9 C 27,2 C 24,4 C 59 % 1018,1 hPa 0,0 l/m 2 min 0 min 760 W/m 20,3 km/h (4 Bft) 95,92 %
06.07.2018 15:28 26,0 C 26,7 C 23,9 C 58 % 1018,0 hPa 0,0 l/m 0 min 0 min 360 W/m 13,5 km/h (3 Bft) 97,87 %
06.07.2018 15:30 26,0 C 26,1 C 23,9 C 57 % 1018,0 hPa 0,0 l/m 0 min 0 min 235 W/m 11,3 km/h (2 Bft) 97,83 %
06.07.2018 15:32 25,9 C 26,1 C 23,9 C 58 % 1018,0 hPa 0,0 l/m 2 min 0 min 396 W/m 13,5 km/h (3 Bft) 97,87 %
06.07.2018 15:34 26,0 C 27,2 C 23,9 C 59 % 1018,0 hPa 0,0 l/m 2 min 0 min 908 W/m 11,3 km/h (2 Bft) 97,87 %
06.07.2018 15:36 26,0 C 27,2 C 23,9 C 59 % 1018,0 hPa 0,0 l/m 2 min 0 min 930 W/m 11,3 km/h (2 Bft) 97,92 %
06.07.2018 15:38 26,1 C 27,2 C 24,4 C 57 % 1017,9 hPa 0,0 l/m 2 min 0 min 964 W/m 18,0 km/h (3 Bft) 95,74 %
06.07.2018 15:40 26,1 C 27,8 C 24,4 C 59 % 1018,0 hPa 0,0 l/m 2 min 0 min 954 W/m 11,3 km/h (2 Bft) 97,83 %
06.07.2018 15:42 26,2 C 28,3 C 24,4 C 58 % 1017,9 hPa 0,0 l/m 2 min 0 min 984 W/m 6,8 km/h (2 Bft) 97,87 %
06.07.2018 15:44 26,2 C 28,9 C 25,0 C 58 % 1017,8 hPa 0,0 l/m 2 min 0 min 1007 W/m 15,8 km/h (3 Bft) 97,87 %
06.07.2018 15:46 26,3 C 30,0 C 25,0 C 58 % 1017,8 hPa 0,0 l/m 2 min 0 min 1000 W/m 15,8 km/h (3 Bft) 97,56 %
06.07.2018 15:48 26,5 C 29,4 C 25,0 C 57 % 1017,9 hPa 0,0 l/m 2 min 0 min 973 W/m 20,3 km/h (4 Bft) 97,87 %
06.07.2018 15:50 26,6 C 28,3 C 25,0 C 57 % 1018,0 hPa 0,0 l/m 2 min 0 min 507 W/m 9,0 km/h (2 Bft) 97,87 %
06.07.2018 15:52 26,6 C 27,8 C 24,4 C 56 % 1017,9 hPa 0,0 l/m 0 min 0 min 282 W/m 11,3 km/h (2 Bft) 95,83 %
06.07.2018 15:54 26,6 C 27,2 C 23,9 C 56 % 1018,0 hPa 0,0 l/m 0 min 0 min 268 W/m 15,8 km/h (3 Bft) 97,87 %
06.07.2018 15:56 26,5 C 26,7 C 23,9 C 56 % 1018,1 hPa 0,0 l/m 0 min 0 min 221 W/m 13,5 km/h (3 Bft) 93,62 %
06.07.2018 15:58 26,4 C 26,1 C 23,9 C 56 % 1018,1 hPa 0,0 l/m 0 min 0 min 195 W/m 15,8 km/h (3 Bft) 97,87 %
06.07.2018 16:00 26,3 C 26,1 C 23,9 C 56 % 1018,1 hPa 0,0 l/m 0 min 0 min 181 W/m 18,0 km/h (3 Bft) 95,74 %
06.07.2018 16:02 26,3 C 25,6 C 23,9 C 57 % 1018,2 hPa 0,0 l/m 0 min 0 min 192 W/m 9,0 km/h (2 Bft) 97,87 %
06.07.2018 16:04 26,2 C 25,6 C 23,3 C 57 % 1018,1 hPa 0,0 l/m 0 min 0 min 223 W/m 13,5 km/h (3 Bft) 97,87 %
06.07.2018 16:06 26,2 C 25,6 C 23,9 C 57 % 1018,2 hPa 0,0 l/m 0 min 0 min 270 W/m 13,5 km/h (3 Bft) 95,83 %
06.07.2018 16:08 26,1 C 26,1 C 23,9 C 57 % 1018,1 hPa 0,0 l/m 0 min 0 min 303 W/m 15,8 km/h (3 Bft) 100,00 %
06.07.2018 16:10 26,1 C 27,2 C 23,9 C 57 % 1018,2 hPa 0,0 l/m 2 min 0 min 471 W/m 13,5 km/h (3 Bft) 100,00 %
06.07.2018 16:12 26,0 C 28,3 C 24,4 C 58 % 1018,2 hPa 0,0 l/m 2 min 0 min 585 W/m 11,3 km/h (2 Bft) 100,00 %
06.07.2018 16:14 26,1 C 30,0 C 24,4 C 58 % 1018,1 hPa 0,0 l/m 2 min 0 min 891 W/m 4,5 km/h (1 Bft) 93,75 %
06.07.2018 16:16 26,1 C 30,6 C 25,0 C 58 % 1018,1 hPa 0,0 l/m 2 min 0 min 873 W/m 9,0 km/h (2 Bft) 97,87 %
06.07.2018 16:18 26,2 C 31,1 C 25,0 C 59 % 1018,1 hPa 0,0 l/m 2 min 0 min 918 W/m 22,5 km/h (4 Bft) 97,92 %
06.07.2018 16:20 26,3 C 30,6 C 25,0 C 57 % 1018,1 hPa 0,0 l/m 2 min 0 min 923 W/m 15,8 km/h (3 Bft) 97,83 %
06.07.2018 16:22 26,4 C 30,6 C 25,0 C 57 % 1018,2 hPa 0,0 l/m 2 min 0 min 912 W/m 20,3 km/h (4 Bft) 95,83 %
06.07.2018 16:24 26,4 C 29,4 C 24,4 C 56 % 1018,1 hPa 0,0 l/m 2 min 0 min 575 W/m 11,3 km/h (2 Bft) 97,87 %
06.07.2018 16:26 26,5 C 30,0 C 25,0 C 57 % 1018,1 hPa 0,0 l/m 2 min 0 min 575 W/m 4,5 km/h (1 Bft) 97,87 %
06.07.2018 16:28 26,6 C 30,0 C 25,0 C 58 % 1018,1 hPa 0,0 l/m 2 min 0 min 817 W/m 18,0 km/h (3 Bft) 95,65 %
06.07.2018 16:30 26,6 C 30,6 C 25,0 C 57 % 1018,1 hPa 0,0 l/m 2 min 0 min 582 W/m 15,8 km/h (3 Bft) 95,74 %
06.07.2018 16:32 26,7 C 31,1 C 25,0 C 58 % 1018,0 hPa 0,0 l/m 2 min 0 min 775 W/m 6,8 km/h (2 Bft) 93,75 %
06.07.2018 16:34 26,8 C 31,1 C 25,0 C 57 % 1018,0 hPa 0,0 l/m 2 min 0 min 816 W/m 13,5 km/h (3 Bft) 95,74 %
06.07.2018 16:36 26,8 C 31,1 C 25,0 C 56 % 1017,9 hPa 0,0 l/m 2 min 0 min 815 W/m 11,3 km/h (2 Bft) 95,74 %
06.07.2018 16:38 26,9 C 31,1 C 25,0 C 57 % 1018,0 hPa 0,0 l/m 2 min 0 min 844 W/m 18,0 km/h (3 Bft) 95,65 %
06.07.2018 16:40 27,0 C 30,6 C 25,0 C 56 % 1018,0 hPa 0,0 l/m 2 min 0 min 841 W/m 18,0 km/h (3 Bft) 93,62 %
06.07.2018 16:42 27,1 C 28,9 C 24,4 C 56 % 1018,0 hPa 0,0 l/m 0 min 0 min 235 W/m 13,5 km/h (3 Bft) 95,74 %
06.07.2018 16:44 27,1 C 29,4 C 24,4 C 56 % 1018,0 hPa 0,0 l/m 2 min 0 min 468 W/m 9,0 km/h (2 Bft) 95,74 %
06.07.2018 16:46 27,1 C 28,9 C 25,0 C 56 % 1018,0 hPa 0,0 l/m 2 min 0 min 835 W/m 18,0 km/h (3 Bft) 93,62 %
06.07.2018 16:48 27,2 C 28,9 C 25,0 C 55 % 1018,0 hPa 0,0 l/m 2 min 0 min 828 W/m 24,8 km/h (4 Bft) 95,74 %
06.07.2018 16:50 27,1 C 28,9 C 24,4 C 55 % 1018,0 hPa 0,0 l/m 2 min 0 min 798 W/m 15,8 km/h (3 Bft) 95,65 %
06.07.2018 16:53 27,1 C 29,4 C 25,0 C 55 % 1018,0 hPa 0,0 l/m 3 min 0 min 801 W/m 20,3 km/h (4 Bft) 95,77 %
06.07.2018 16:54 27,1 C 28,9 C 25,0 C 55 % 1018,0 hPa 0,0 l/m 1 min 0 min 823 W/m 11,3 km/h (2 Bft) 86,96 %
06.07.2018 16:56 27,1 C 27,8 C 25,0 C 55 % 1018,0 hPa 0,0 l/m 2 min 0 min 325 W/m 11,3 km/h (2 Bft) 95,74 %
06.07.2018 16:58 27,1 C 27,2 C 24,4 C 54 % 1018,1 hPa 0,0 l/m 0 min 0 min 169 W/m 15,8 km/h (3 Bft) 95,74 %
06.07.2018 17:00 27,0 C 26,1 C 23,9 C 54 % 1018,0 hPa 0,0 l/m 0 min 0 min 166 W/m 15,8 km/h (3 Bft) 95,24 %
06.07.2018 17:02 26,9 C 26,1 C 23,9 C 55 % 1018,0 hPa 0,0 l/m 0 min 0 min 180 W/m 13,5 km/h (3 Bft) 96,00 %
06.07.2018 17:04 26,8 C 26,1 C 23,9 C 56 % 1018,1 hPa 0,0 l/m 0 min 0 min 212 W/m 9,0 km/h (2 Bft) 95,74 %
06.07.2018 17:06 26,8 C 27,2 C 24,4 C 56 % 1018,0 hPa 0,0 l/m 2 min 0 min 318 W/m 9,0 km/h (2 Bft) 95,74 %
06.07.2018 17:08 26,7 C 27,2 C 24,4 C 55 % 1018,1 hPa 0,0 l/m 2 min 0 min 464 W/m 18,0 km/h (3 Bft) 95,65 %
06.07.2018 17:10 26,6 C 27,8 C 24,4 C 55 % 1018,1 hPa 0,0 l/m 2 min 0 min 672 W/m 18,0 km/h (3 Bft) 99,12 %
06.07.2018 17:16 26,5 C 26,1 C 24,4 C 55 % 1018,1 hPa 0,0 l/m 5 min 0 min 495 W/m 11,3 km/h (2 Bft) 97,92 %
06.07.2018 17:18 26,4 C 26,1 C 23,9 C 55 % 1018,2 hPa 0,0 l/m 0 min 0 min 162 W/m 13,5 km/h (3 Bft) 97,87 %
06.07.2018 17:20 26,3 C 25,6 C 23,9 C 55 % 1018,2 hPa 0,0 l/m 0 min 0 min 158 W/m 13,5 km/h (3 Bft) 97,87 %
06.07.2018 17:22 26,3 C 25,6 C 23,9 C 55 % 1018,2 hPa 0,0 l/m 0 min 0 min 162 W/m 13,5 km/h (3 Bft) 97,87 %
06.07.2018 17:24 26,2 C 25,6 C 23,9 C 56 % 1018,3 hPa 0,0 l/m 0 min 0 min 180 W/m 13,5 km/h (3 Bft) 97,92 %
06.07.2018 17:26 26,2 C 25,6 C 23,3 C 56 % 1018,2 hPa 0,0 l/m 0 min 0 min 238 W/m 15,8 km/h (3 Bft) 100,00 %
06.07.2018 17:28 26,1 C 26,1 C 23,9 C 56 % 1018,2 hPa 0,0 l/m 0 min 0 min 281 W/m 13,5 km/h (3 Bft) 100,00 %
06.07.2018 17:30 26,1 C 26,1 C 23,9 C 57 % 1018,2 hPa 0,0 l/m 0 min 0 min 283 W/m 9,0 km/h (2 Bft) 97,87 %
06.07.2018 17:32 26,1 C 26,7 C 24,4 C 56 % 1018,2 hPa 0,0 l/m 0 min 0 min 287 W/m 20,3 km/h (4 Bft) 95,74 %
06.07.2018 17:34 26,0 C 26,7 C 23,9 C 56 % 1018,3 hPa 0,0 l/m 0 min 0 min 287 W/m 13,5 km/h (3 Bft) 100,00 %
06.07.2018 17:36 26,0 C 26,1 C 24,4 C 56 % 1018,2 hPa 0,0 l/m 0 min 0 min 251 W/m 13,5 km/h (3 Bft) 100,00 %
06.07.2018 17:38 25,9 C 26,1 C 24,4 C 56 % 1018,3 hPa 0,0 l/m 0 min 0 min 227 W/m 13,5 km/h (3 Bft) 100,00 %
06.07.2018 17:40 25,9 C 26,1 C 23,9 C 57 % 1018,3 hPa 0,0 l/m 0 min 0 min 231 W/m 18,0 km/h (3 Bft) 97,87 %
06.07.2018 17:42 25,9 C 25,6 C 23,9 C 56 % 1018,3 hPa 0,0 l/m 0 min 0 min 201 W/m 15,8 km/h (3 Bft) 97,87 %
06.07.2018 17:44 25,8 C 25,6 C 23,9 C 56 % 1018,3 hPa 0,0 l/m 0 min 0 min 196 W/m 11,3 km/h (2 Bft) 100,00 %
06.07.2018 17:46 25,8 C 25,6 C 23,9 C 56 % 1018,3 hPa 0,0 l/m 0 min 0 min 197 W/m 11,3 km/h (2 Bft) 97,87 %
06.07.2018 17:48 25,8 C 25,6 C 23,9 C 56 % 1018,2 hPa 0,0 l/m 0 min 0 min 199 W/m 11,3 km/h (2 Bft) 100,00 %
06.07.2018 17:50 25,7 C 25,6 C 23,9 C 56 % 1018,3 hPa 0,0 l/m 0 min 0 min 204 W/m 4,5 km/h (1 Bft) 100,00 %
06.07.2018 17:52 25,7 C 25,6 C 23,9 C 57 % 1018,3 hPa 0,0 l/m 0 min 0 min 225 W/m 11,3 km/h (2 Bft) 100,00 %
06.07.2018 17:54 25,7 C 25,6 C 23,9 C 56 % 1018,4 hPa 0,0 l/m 0 min 0 min 239 W/m 20,3 km/h (4 Bft) 100,00 %
06.07.2018 17:56 25,7 C 25,6 C 23,9 C 56 % 1018,3 hPa 0,0 l/m 0 min 0 min 252 W/m 15,8 km/h (3 Bft) 100,00 %
06.07.2018 17:58 25,7 C 26,1 C 23,9 C 56 % 1018,3 hPa 0,0 l/m 2 min 0 min 292 W/m 15,8 km/h (3 Bft) 97,87 %
06.07.2018 18:00 25,7 C 26,1 C 24,4 C 56 % 1018,3 hPa 0,0 l/m 2 min 0 min 292 W/m 6,8 km/h (2 Bft) 97,87 %
06.07.2018 18:02 25,7 C 26,1 C 24,4 C 55 % 1018,3 hPa 0,0 l/m 2 min 0 min 292 W/m 18,0 km/h (3 Bft) 97,87 %
06.07.2018 18:04 25,7 C 26,1 C 24,4 C 56 % 1018,3 hPa 0,0 l/m 2 min 0 min 309 W/m 13,5 km/h (3 Bft) 97,83 %
06.07.2018 18:08 25,7 C 26,1 C 23,9 C 55 % 1018,4 hPa 0,0 l/m 4 min 0 min 293 W/m 18,0 km/h (3 Bft) 96,43 %
06.07.2018 18:10 25,7 C 26,1 C 23,9 C 55 % 1018,3 hPa 0,0 l/m 2 min 0 min 297 W/m 15,8 km/h (3 Bft) 97,87 %
06.07.2018 18:12 25,7 C 26,1 C 24,4 C 55 % 1018,3 hPa 0,0 l/m 2 min 0 min 301 W/m 13,5 km/h (3 Bft) 97,87 %
06.07.2018 18:14 25,8 C 26,1 C 24,4 C 55 % 1018,3 hPa 0,0 l/m 2 min 0 min 336 W/m 13,5 km/h (3 Bft) 97,87 %
06.07.2018 18:16 25,8 C 26,7 C 24,4 C 55 % 1018,3 hPa 0,0 l/m 2 min 0 min 631 W/m 15,8 km/h (3 Bft) 95,74 %
06.07.2018 18:18 25,8 C 27,2 C 24,4 C 56 % 1018,3 hPa 0,0 l/m 2 min 0 min 644 W/m 9,0 km/h (2 Bft) 97,83 %
06.07.2018 18:20 25,9 C 26,7 C 24,4 C 56 % 1018,3 hPa 0,0 l/m 2 min 0 min 456 W/m 4,5 km/h (1 Bft) 97,87 %
06.07.2018 18:22 25,9 C 26,7 C 24,4 C 56 % 1018,3 hPa 0,0 l/m 2 min 0 min 281 W/m 11,3 km/h (2 Bft) 97,92 %
06.07.2018 18:24 25,9 C 26,7 C 24,4 C 56 % 1018,3 hPa 0,0 l/m 2 min 0 min 284 W/m 11,3 km/h (2 Bft) 97,87 %
06.07.2018 18:26 25,9 C 26,1 C 24,4 C 54 % 1018,3 hPa 0,0 l/m 2 min 0 min 247 W/m 22,5 km/h (4 Bft) 97,56 %
06.07.2018 18:28 25,9 C 26,1 C 24,4 C 54 % 1018,3 hPa 0,0 l/m 2 min 0 min 243 W/m 18,0 km/h (3 Bft) 97,92 %
06.07.2018 18:30 25,9 C 25,6 C 23,9 C 54 % 1018,4 hPa 0,0 l/m 0 min 0 min 199 W/m 13,5 km/h (3 Bft) 97,92 %
06.07.2018 18:32 25,9 C 25,6 C 23,9 C 54 % 1018,4 hPa 0,0 l/m 0 min 0 min 198 W/m 4,5 km/h (1 Bft) 100,00 %
06.07.2018 18:34 25,9 C 25,6 C 23,9 C 55 % 1018,3 hPa 0,0 l/m 0 min 0 min 205 W/m 9,0 km/h (2 Bft) 95,74 %
06.07.2018 18:36 25,9 C 25,6 C 23,9 C 55 % 1018,3 hPa 0,0 l/m 0 min 0 min 210 W/m 13,5 km/h (3 Bft) 97,87 %
06.07.2018 18:38 25,9 C 25,6 C 23,9 C 55 % 1018,3 hPa 0,0 l/m 0 min 0 min 215 W/m 20,3 km/h (4 Bft) 97,87 %
06.07.2018 18:40 25,8 C 25,6 C 23,9 C 55 % 1018,3 hPa 0,0 l/m 2 min 0 min 216 W/m 13,5 km/h (3 Bft) 97,92 %
06.07.2018 18:42 25,8 C 25,6 C 23,9 C 55 % 1018,4 hPa 0,0 l/m 2 min 0 min 217 W/m 11,3 km/h (2 Bft) 97,92 %
06.07.2018 18:44 25,8 C 25,6 C 23,9 C 55 % 1018,3 hPa 0,0 l/m 2 min 0 min 222 W/m 6,8 km/h (2 Bft) 100,00 %
06.07.2018 18:46 25,8 C 25,6 C 23,9 C 55 % 1018,3 hPa 0,0 l/m 2 min 0 min 232 W/m 9,0 km/h (2 Bft) 100,00 %
06.07.2018 18:48 25,7 C 25,6 C 23,9 C 55 % 1018,4 hPa 0,0 l/m 2 min 0 min 237 W/m 15,8 km/h (3 Bft) 97,87 %
06.07.2018 18:50 25,7 C 25,6 C 23,9 C 55 % 1018,3 hPa 0,0 l/m 2 min 0 min 243 W/m 11,3 km/h (2 Bft) 100,00 %
06.07.2018 18:52 25,7 C 26,1 C 23,9 C 55 % 1018,3 hPa 0,0 l/m 2 min 0 min 244 W/m 13,5 km/h (3 Bft) 100,00 %
06.07.2018 18:54 25,7 C 26,1 C 23,9 C 56 % 1018,3 hPa 0,0 l/m 2 min 0 min 435 W/m 13,5 km/h (3 Bft) 100,00 %
06.07.2018 18:56 25,7 C 26,1 C 23,9 C 56 % 1018,3 hPa 0,0 l/m 2 min 0 min 464 W/m 15,8 km/h (3 Bft) 97,87 %
06.07.2018 18:58 25,7 C 26,1 C 23,9 C 56 % 1018,3 hPa 0,0 l/m 2 min 0 min 466 W/m 9,0 km/h (2 Bft) 100,00 %
06.07.2018 19:00 25,7 C 26,7 C 23,9 C 57 % 1018,3 hPa 0,0 l/m 2 min 0 min 451 W/m 9,0 km/h (2 Bft) 97,87 %
06.07.2018 19:02 25,7 C 26,7 C 23,9 C 56 % 1018,3 hPa 0,0 l/m 2 min 0 min 474 W/m 20,3 km/h (4 Bft) 100,00 %
06.07.2018 19:04 25,8 C 26,7 C 24,4 C 55 % 1018,3 hPa 0,0 l/m 2 min 0 min 500 W/m 13,5 km/h (3 Bft) 97,83 %
06.07.2018 19:06 25,8 C 26,7 C 24,4 C 55 % 1018,3 hPa 0,0 l/m 2 min 0 min 445 W/m 13,5 km/h (3 Bft) 100,00 %
06.07.2018 19:08 25,8 C 26,1 C 23,9 C 55 % 1018,3 hPa 0,0 l/m 2 min 0 min 300 W/m 13,5 km/h (3 Bft) 100,00 %
06.07.2018 19:10 25,8 C 25,6 C 23,9 C 55 % 1018,3 hPa 0,0 l/m 2 min 0 min 180 W/m 11,3 km/h (2 Bft) 97,87 %
06.07.2018 19:12 25,8 C 25,6 C 23,9 C 55 % 1018,3 hPa 0,0 l/m 0 min 0 min 170 W/m 6,8 km/h (2 Bft) 95,74 %
06.07.2018 19:14 25,8 C 25,6 C 23,9 C 55 % 1018,3 hPa 0,0 l/m 2 min 0 min 203 W/m 6,8 km/h (2 Bft) 100,00 %
06.07.2018 19:16 25,8 C 25,6 C 23,9 C 55 % 1018,2 hPa 0,0 l/m 2 min 0 min 212 W/m 6,8 km/h (2 Bft) 95,65 %
06.07.2018 19:18 25,8 C 25,6 C 23,9 C 55 % 1018,3 hPa 0,0 l/m 2 min 0 min 200 W/m 6,8 km/h (2 Bft) 97,87 %
06.07.2018 19:20 25,7 C 25,6 C 23,3 C 55 % 1018,3 hPa 0,0 l/m 2 min 0 min 197 W/m 11,3 km/h (2 Bft) 95,74 %
06.07.2018 19:22 25,7 C 25,6 C 23,9 C 54 % 1018,3 hPa 0,0 l/m 2 min 0 min 192 W/m 15,8 km/h (3 Bft) 97,87 %
06.07.2018 19:24 25,7 C 25,6 C 23,9 C 55 % 1018,3 hPa 0,0 l/m 2 min 0 min 363 W/m 9,0 km/h (2 Bft) 97,87 %
06.07.2018 19:26 25,7 C 25,6 C 23,9 C 55 % 1018,3 hPa 0,0 l/m 2 min 0 min 372 W/m 13,5 km/h (3 Bft) 100,00 %
06.07.2018 19:28 25,6 C 25,6 C 23,9 C 55 % 1018,3 hPa 0,0 l/m 2 min 0 min 359 W/m 13,5 km/h (3 Bft) 100,00 %
06.07.2018 19:30 25,6 C 25,6 C 23,9 C 55 % 1018,3 hPa 0,0 l/m 2 min 0 min 322 W/m 9,0 km/h (2 Bft) 97,62 %
06.07.2018 19:32 25,6 C 25,6 C 23,9 C 55 % 1018,3 hPa 0,0 l/m 2 min 0 min 296 W/m 6,8 km/h (2 Bft) 95,74 %
06.07.2018 19:34 25,6 C 25,6 C 23,9 C 55 % 1018,3 hPa 0,0 l/m 2 min 0 min 270 W/m 13,5 km/h (3 Bft) 97,87 %
06.07.2018 19:36 25,6 C 25,6 C 23,9 C 55 % 1018,3 hPa 0,0 l/m 2 min 0 min 216 W/m 15,8 km/h (3 Bft) 97,87 %
06.07.2018 19:38 25,6 C 25,0 C 23,3 C 55 % 1018,3 hPa 0,0 l/m 2 min 0 min 219 W/m 11,3 km/h (2 Bft) 95,83 %
06.07.2018 19:40 25,5 C 25,0 C 23,3 C 55 % 1018,4 hPa 0,0 l/m 2 min 0 min 189 W/m 9,0 km/h (2 Bft) 93,75 %
06.07.2018 19:42 25,5 C 25,0 C 23,3 C 55 % 1018,3 hPa 0,0 l/m 2 min 0 min 272 W/m 6,8 km/h (2 Bft) 97,87 %
06.07.2018 19:44 25,4 C 25,0 C 23,3 C 56 % 1018,3 hPa 0,0 l/m 2 min 0 min 264 W/m 13,5 km/h (3 Bft) 95,74 %
06.07.2018 19:46 25,4 C 25,0 C 23,3 C 55 % 1018,3 hPa 0,0 l/m 2 min 0 min 220 W/m 6,8 km/h (2 Bft) 93,75 %
06.07.2018 19:48 25,4 C 25,0 C 23,3 C 56 % 1018,3 hPa 0,0 l/m 2 min 0 min 249 W/m 13,5 km/h (3 Bft) 95,83 %
06.07.2018 19:50 25,4 C 25,0 C 23,3 C 55 % 1018,2 hPa 0,0 l/m 2 min 0 min 266 W/m 13,5 km/h (3 Bft) 95,74 %
06.07.2018 19:52 25,3 C 25,0 C 23,3 C 55 % 1018,3 hPa 0,0 l/m 2 min 0 min 248 W/m 13,5 km/h (3 Bft) 95,74 %
06.07.2018 19:54 25,3 C 25,0 C 23,3 C 55 % 1018,4 hPa 0,0 l/m 2 min 0 min 221 W/m 11,3 km/h (2 Bft) 95,74 %
06.07.2018 19:56 25,3 C 25,0 C 23,3 C 55 % 1018,3 hPa 0,0 l/m 2 min 0 min 179 W/m 9,0 km/h (2 Bft) 95,74 %
06.07.2018 19:58 25,2 C 24,4 C 23,3 C 55 % 1018,3 hPa 0,0 l/m 0 min 0 min 117 W/m 9,0 km/h (2 Bft) 95,74 %
06.07.2018 20:00 25,2 C 24,4 C 23,3 C 55 % 1018,3 hPa 0,0 l/m 0 min 0 min 98 W/m 11,3 km/h (2 Bft) 93,62 %
06.07.2018 20:02 25,1 C 24,4 C 23,3 C 55 % 1018,3 hPa 0,0 l/m 0 min 0 min 85 W/m 9,0 km/h (2 Bft) 93,02 %
06.07.2018 20:04 25,1 C 23,9 C 23,3 C 55 % 1018,3 hPa 0,0 l/m 0 min 0 min 77 W/m 9,0 km/h (2 Bft) 95,74 %
06.07.2018 20:06 25,1 C 23,9 C 23,3 C 55 % 1018,3 hPa 0,0 l/m 0 min 0 min 71 W/m 11,3 km/h (2 Bft) 95,74 %
06.07.2018 20:08 25,1 C 23,9 C 22,8 C 55 % 1018,3 hPa 0,0 l/m 0 min 0 min 66 W/m 9,0 km/h (2 Bft) 95,83 %
06.07.2018 20:10 25,0 C 23,9 C 22,8 C 55 % 1018,3 hPa 0,0 l/m 0 min 0 min 62 W/m 4,5 km/h (1 Bft) 95,83 %
06.07.2018 20:12 25,0 C 23,9 C 22,8 C 55 % 1018,3 hPa 0,0 l/m 0 min 0 min 64 W/m 13,5 km/h (3 Bft) 95,83 %
06.07.2018 20:14 24,9 C 23,9 C 22,8 C 55 % 1018,3 hPa 0,0 l/m 0 min 0 min 70 W/m 9,0 km/h (2 Bft) 95,74 %
06.07.2018 20:16 24,9 C 23,9 C 22,8 C 55 % 1018,3 hPa 0,0 l/m 0 min 0 min 72 W/m 4,5 km/h (1 Bft) 95,74 %
06.07.2018 20:18 24,8 C 23,9 C 22,8 C 55 % 1018,3 hPa 0,0 l/m 0 min 0 min 71 W/m 6,8 km/h (2 Bft) 95,74 %
06.07.2018 20:20 24,8 C 23,9 C 22,8 C 55 % 1018,2 hPa 0,0 l/m 0 min 0 min 70 W/m 6,8 km/h (2 Bft) 95,74 %
06.07.2018 20:22 24,7 C 23,9 C 22,8 C 55 % 1018,2 hPa 0,0 l/m 0 min 0 min 69 W/m 11,3 km/h (2 Bft) 93,75 %
06.07.2018 20:24 24,7 C 23,9 C 22,8 C 55 % 1018,2 hPa 0,0 l/m 0 min 0 min 70 W/m 13,5 km/h (3 Bft) 95,74 %
06.07.2018 20:26 24,7 C 23,9 C 22,8 C 55 % 1018,2 hPa 0,0 l/m 0 min 0 min 74 W/m 11,3 km/h (2 Bft) 95,65 %
06.07.2018 20:28 24,6 C 23,9 C 22,8 C 55 % 1018,2 hPa 0,0 l/m 0 min 0 min 74 W/m 11,3 km/h (2 Bft) 95,74 %
06.07.2018 20:30 24,6 C 23,9 C 22,8 C 55 % 1018,2 hPa 0,0 l/m 0 min 0 min 69 W/m 6,8 km/h (2 Bft) 97,87 %
06.07.2018 20:32 24,6 C 23,9 C 22,8 C 56 % 1018,3 hPa 0,0 l/m 0 min 0 min 69 W/m 9,0 km/h (2 Bft) 95,74 %
06.07.2018 20:34 24,5 C 23,9 C 22,8 C 56 % 1018,2 hPa 0,0 l/m 0 min 0 min 67 W/m 6,8 km/h (2 Bft) 95,74 %
06.07.2018 20:36 24,4 C 23,9 C 22,8 C 56 % 1018,2 hPa 0,0 l/m 0 min 0 min 69 W/m 11,3 km/h (2 Bft) 95,74 %
06.07.2018 20:38 24,4 C 23,9 C 22,8 C 55 % 1018,2 hPa 0,0 l/m 0 min 0 min 66 W/m 11,3 km/h (2 Bft) 97,83 %
06.07.2018 20:40 24,4 C 23,9 C 22,8 C 55 % 1018,2 hPa 0,0 l/m 0 min 0 min 63 W/m 11,3 km/h (2 Bft) 97,62 %
06.07.2018 20:42 24,4 C 23,9 C 22,8 C 56 % 1018,2 hPa 0,0 l/m 0 min 0 min 61 W/m 6,8 km/h (2 Bft) 97,87 %
06.07.2018 20:44 24,4 C 23,9 C 22,8 C 55 % 1018,2 hPa 0,0 l/m 0 min 0 min 58 W/m 13,5 km/h (3 Bft) 95,83 %
06.07.2018 20:46 24,3 C 23,9 C 22,8 C 56 % 1018,2 hPa 0,0 l/m 0 min 0 min 57 W/m 11,3 km/h (2 Bft) 97,92 %
06.07.2018 20:48 24,3 C 23,9 C 22,8 C 56 % 1018,2 hPa 0,0 l/m 0 min 0 min 60 W/m 6,8 km/h (2 Bft) 97,92 %
06.07.2018 20:50 24,3 C 23,9 C 22,8 C 56 % 1018,2 hPa 0,0 l/m 2 min 0 min 65 W/m 13,5 km/h (3 Bft) 95,74 %
06.07.2018 20:52 24,3 C 23,9 C 22,8 C 56 % 1018,2 hPa 0,0 l/m 2 min 0 min 63 W/m 6,8 km/h (2 Bft) 97,83 %
06.07.2018 20:54 24,3 C 23,9 C 22,8 C 56 % 1018,2 hPa 0,0 l/m 2 min 0 min 62 W/m 6,8 km/h (2 Bft) 95,83 %
06.07.2018 20:56 24,3 C 23,9 C 22,8 C 56 % 1018,2 hPa 0,0 l/m 2 min 0 min 59 W/m 4,5 km/h (1 Bft) 97,87 %
06.07.2018 20:58 24,2 C 23,3 C 22,8 C 56 % 1018,2 hPa 0,0 l/m 2 min 0 min 54 W/m 6,8 km/h (2 Bft) 97,87 %
06.07.2018 21:00 24,2 C 23,3 C 22,8 C 56 % 1018,1 hPa 0,0 l/m 2 min 0 min 53 W/m 6,8 km/h (2 Bft) 97,87 %
06.07.2018 21:02 24,2 C 23,3 C 22,8 C 56 % 1018,2 hPa 0,0 l/m 2 min 0 min 54 W/m 6,8 km/h (2 Bft) 95,74 %
06.07.2018 21:04 24,2 C 23,3 C 22,2 C 57 % 1018,2 hPa 0,0 l/m 2 min 0 min 54 W/m 4,5 km/h (1 Bft) 97,87 %
06.07.2018 21:06 24,2 C 23,3 C 22,2 C 56 % 1018,2 hPa 0,0 l/m 2 min 0 min 54 W/m 6,8 km/h (2 Bft) 97,87 %
06.07.2018 21:08 24,1 C 23,3 C 22,2 C 55 % 1018,2 hPa 0,0 l/m 2 min 0 min 53 W/m 9,0 km/h (2 Bft) 95,74 %
06.07.2018 21:10 24,1 C 23,3 C 22,2 C 56 % 1018,2 hPa 0,0 l/m 2 min 0 min 53 W/m 2,3 km/h (1 Bft) 97,87 %
06.07.2018 21:12 24,1 C 22,8 C 22,2 C 56 % 1018,3 hPa 0,0 l/m 2 min 0 min 53 W/m 4,5 km/h (1 Bft) 97,56 %
06.07.2018 21:14 24,1 C 22,8 C 21,7 C 58 % 1018,3 hPa 0,0 l/m 2 min 0 min 52 W/m 2,3 km/h (1 Bft) 97,87 %
06.07.2018 21:16 24,1 C 22,8 C 21,7 C 57 % 1018,3 hPa 0,0 l/m 2 min 0 min 48 W/m 9,0 km/h (2 Bft) 100,00 %
06.07.2018 21:18 24,0 C 22,8 C 21,7 C 56 % 1018,4 hPa 0,0 l/m 2 min 0 min 45 W/m 6,8 km/h (2 Bft) 100,00 %
06.07.2018 21:20 24,0 C 22,8 C 22,2 C 56 % 1018,4 hPa 0,0 l/m 2 min 0 min 42 W/m 6,8 km/h (2 Bft) 97,92 %
06.07.2018 21:22 23,9 C 22,8 C 22,2 C 56 % 1018,4 hPa 0,0 l/m 2 min 0 min 36 W/m 11,3 km/h (2 Bft) 100,00 %
06.07.2018 21:24 23,9 C 21,7 C 20,6 C 57 % 1018,4 hPa 0,0 l/m 2 min 0 min 29 W/m 4,5 km/h (1 Bft) 100,00 %
06.07.2018 21:26 23,9 C 20,6 C 18,9 C 59 % 1018,5 hPa 0,0 l/m 2 min 0 min 24 W/m 9,0 km/h (2 Bft) 100,00 %
06.07.2018 21:28 23,9 C 19,4 C 18,3 C 58 % 1018,5 hPa 0,0 l/m 2 min 0 min 20 W/m 6,8 km/h (2 Bft) 97,87 %
06.07.2018 21:30 23,9 C 18,9 C 17,2 C 59 % 1018,5 hPa 0,0 l/m 0 min 0 min 17 W/m 4,5 km/h (1 Bft) 95,83 %
06.07.2018 21:32 23,8 C 18,3 C 16,7 C 59 % 1018,5 hPa 0,0 l/m 0 min 0 min 16 W/m 2,3 km/h (1 Bft) 100,00 %
06.07.2018 21:34 23,8 C 17,8 C 16,1 C 60 % 1018,6 hPa 0,0 l/m 0 min 0 min 14 W/m 2,3 km/h (1 Bft) 100,00 %
06.07.2018 21:36 23,7 C 17,2 C 16,1 C 61 % 1018,6 hPa 0,0 l/m 0 min 0 min 13 W/m 4,5 km/h (1 Bft) 97,83 %
06.07.2018 21:38 23,7 C 17,2 C 16,1 C 62 % 1018,6 hPa 0,0 l/m 0 min 0 min 12 W/m 4,5 km/h (1 Bft) 100,00 %
06.07.2018 21:40 23,6 C 17,2 C 16,1 C 62 % 1018,6 hPa 0,0 l/m 0 min 0 min 11 W/m 4,5 km/h (1 Bft) 97,87 %
06.07.2018 21:42 23,6 C 17,2 C 16,7 C 60 % 1018,6 hPa 0,0 l/m 0 min 0 min 10 W/m 9,0 km/h (2 Bft) 100,00 %
06.07.2018 21:44 23,5 C 17,2 C 16,7 C 61 % 1018,6 hPa 0,0 l/m 0 min 0 min 9 W/m 4,5 km/h (1 Bft) 100,00 %
06.07.2018 21:46 23,4 C 17,2 C 16,7 C 60 % 1018,6 hPa 0,0 l/m 0 min 0 min 9 W/m 2,3 km/h (1 Bft) 100,00 %
06.07.2018 21:48 23,3 C 17,8 C 16,7 C 60 % 1018,7 hPa 0,0 l/m 0 min 0 min 7 W/m 0,0 km/h (0 Bft) 100,00 %
06.07.2018 21:50 23,3 C 17,8 C 16,7 C 61 % 1018,7 hPa 0,0 l/m 0 min 0 min 7 W/m 4,5 km/h (1 Bft) 100,00 %
06.07.2018 21:52 23,2 C 17,2 C 16,1 C 62 % 1018,7 hPa 0,0 l/m 0 min 0 min 7 W/m 2,3 km/h (1 Bft) 100,00 %
06.07.2018 21:54 23,2 C 16,7 C 16,1 C 63 % 1018,7 hPa 0,0 l/m 0 min 0 min 5 W/m 2,3 km/h (1 Bft) 100,00 %
06.07.2018 21:56 23,1 C 17,2 C 16,1 C 63 % 1018,9 hPa 0,0 l/m 0 min 0 min 5 W/m 4,5 km/h (1 Bft) 100,00 %
06.07.2018 21:58 23,0 C 16,7 C 16,1 C 63 % 1018,8 hPa 0,0 l/m 0 min 0 min 5 W/m 2,3 km/h (1 Bft) 100,00 %
06.07.2018 22:00 22,9 C 17,2 C 16,1 C 63 % 1018,8 hPa 0,0 l/m 0 min 0 min 3 W/m 4,5 km/h (1 Bft) 100,00 %
06.07.2018 22:02 22,8 C 17,2 C 15,6 C 63 % 1018,9 hPa 0,0 l/m 0 min 0 min 0 W/m 4,5 km/h (1 Bft) 100,00 %
06.07.2018 22:04 22,7 C 16,7 C 15,6 C 63 % 1019,0 hPa 0,0 l/m 0 min 0 min 0 W/m 2,3 km/h (1 Bft) 100,00 %
06.07.2018 22:06 22,7 C 17,2 C 15,6 C 65 % 1019,0 hPa 0,0 l/m 0 min 0 min 0 W/m 2,3 km/h (1 Bft) 100,00 %
06.07.2018 22:08 22,6 C 16,7 C 15,6 C 66 % 1019,1 hPa 0,0 l/m 0 min 0 min 0 W/m 0,0 km/h (0 Bft) 100,00 %
06.07.2018 22:10 22,6 C 16,7 C 15,6 C 66 % 1019,1 hPa 0,0 l/m 0 min 0 min 0 W/m 2,3 km/h (1 Bft) 100,00 %
06.07.2018 22:12 22,5 C 16,7 C 15,6 C 67 % 1019,1 hPa 0,0 l/m 0 min 0 min 0 W/m 2,3 km/h (1 Bft) 100,00 %
06.07.2018 22:14 22,4 C 16,7 C 15,0 C 67 % 1019,1 hPa 0,0 l/m 0 min 0 min 0 W/m 4,5 km/h (1 Bft) 97,87 %
06.07.2018 22:16 22,3 C 16,7 C 15,6 C 67 % 1019,1 hPa 0,0 l/m 0 min 0 min 0 W/m 2,3 km/h (1 Bft) 97,83 %
06.07.2018 22:18 22,2 C 16,7 C 15,6 C 67 % 1019,1 hPa 0,0 l/m 0 min 0 min 0 W/m 2,3 km/h (1 Bft) 97,87 %
06.07.2018 22:20 22,2 C 16,7 C 15,6 C 68 % 1019,1 hPa 0,0 l/m 0 min 0 min 0 W/m 2,3 km/h (1 Bft) 100,00 %
06.07.2018 22:22 22,1 C 16,1 C 15,6 C 68 % 1019,2 hPa 0,0 l/m 0 min 0 min 0 W/m 2,3 km/h (1 Bft) 97,92 %
06.07.2018 22:24 22,0 C 16,1 C 15,6 C 68 % 1019,2 hPa 0,0 l/m 0 min 0 min 0 W/m 0,0 km/h (0 Bft) 97,87 %
06.07.2018 22:26 21,9 C 16,1 C 15,6 C 68 % 1019,1 hPa 0,0 l/m 0 min 0 min 0 W/m 4,5 km/h (1 Bft) 97,87 %
06.07.2018 22:28 21,8 C 16,1 C 15,0 C 68 % 1019,2 hPa 0,0 l/m 0 min 0 min 0 W/m 4,5 km/h (1 Bft) 100,00 %
06.07.2018 22:30 21,7 C 16,1 C 15,0 C 69 % 1019,2 hPa 0,0 l/m 0 min 0 min 0 W/m 4,5 km/h (1 Bft) 97,92 %
06.07.2018 22:32 21,6 C 16,1 C 15,0 C 69 % 1019,2 hPa 0,0 l/m 0 min 0 min 0 W/m 2,3 km/h (1 Bft) 95,74 %
06.07.2018 22:34 21,5 C 16,1 C 15,0 C 68 % 1019,2 hPa 0,0 l/m 0 min 0 min 0 W/m 2,3 km/h (1 Bft) 97,87 %
06.07.2018 22:36 21,4 C 16,1 C 15,0 C 69 % 1019,2 hPa 0,0 l/m 0 min 0 min 0 W/m 4,5 km/h (1 Bft) 91,49 %
06.07.2018 22:38 21,3 C 16,1 C 15,0 C 70 % 1019,2 hPa 0,0 l/m 0 min 0 min 0 W/m 2,3 km/h (1 Bft) 97,87 %
06.07.2018 22:40 21,3 C 16,1 C 15,0 C 70 % 1019,2 hPa 0,0 l/m 0 min 0 min 0 W/m 4,5 km/h (1 Bft) 97,87 %
06.07.2018 22:42 21,2 C 16,1 C 15,0 C 71 % 1019,3 hPa 0,0 l/m 0 min 0 min 0 W/m 6,8 km/h (2 Bft) 95,74 %
06.07.2018 22:44 21,1 C 16,1 C 15,0 C 70 % 1019,3 hPa 0,0 l/m 0 min 0 min 0 W/m 2,3 km/h (1 Bft) 97,87 %
06.07.2018 22:46 21,0 C 15,6 C 15,0 C 71 % 1019,3 hPa 0,0 l/m 0 min 0 min 0 W/m 0,0 km/h (0 Bft) 97,83 %
06.07.2018 22:48 20,9 C 15,6 C 15,0 C 71 % 1019,3 hPa 0,0 l/m 0 min 0 min 0 W/m 4,5 km/h (1 Bft) 97,62 %
06.07.2018 22:50 20,9 C 15,6 C 15,0 C 70 % 1019,4 hPa 0,0 l/m 0 min 0 min 0 W/m 4,5 km/h (1 Bft) 97,83 %
06.07.2018 22:52 20,8 C 15,6 C 15,0 C 71 % 1019,3 hPa 0,0 l/m 0 min 0 min 0 W/m 4,5 km/h (1 Bft) 97,87 %
06.07.2018 22:54 20,7 C 15,6 C 15,0 C 71 % 1019,3 hPa 0,0 l/m 0 min 0 min 0 W/m 2,3 km/h (1 Bft) 95,74 %
06.07.2018 22:56 20,6 C 15,6 C 15,0 C 71 % 1019,3 hPa 0,0 l/m 0 min 0 min 0 W/m 4,5 km/h (1 Bft) 97,87 %
06.07.2018 22:58 20,6 C 15,6 C 15,0 C 71 % 1019,3 hPa 0,0 l/m 0 min 0 min 0 W/m 0,0 km/h (0 Bft) 97,87 %
06.07.2018 23:00 20,5 C 16,1 C 15,0 C 71 % 1019,3 hPa 0,0 l/m 0 min 0 min 0 W/m 2,3 km/h (1 Bft) 100,00 %
06.07.2018 23:02 20,4 C 16,1 C 15,0 C 71 % 1019,3 hPa 0,0 l/m 0 min 0 min 0 W/m 4,5 km/h (1 Bft) 97,87 %
06.07.2018 23:04 20,4 C 16,1 C 15,0 C 71 % 1019,3 hPa 0,0 l/m 0 min 0 min 0 W/m 2,3 km/h (1 Bft) 98,00 %
06.07.2018 23:06 20,3 C 16,1 C 15,0 C 71 % 1019,3 hPa 0,0 l/m 0 min 0 min 0 W/m 2,3 km/h (1 Bft) 100,00 %
06.07.2018 23:08 20,3 C 16,1 C 15,0 C 71 % 1019,3 hPa 0,0 l/m 0 min 0 min 0 W/m 2,3 km/h (1 Bft) 100,00 %
06.07.2018 23:10 20,2 C 16,1 C 15,0 C 71 % 1019,3 hPa 0,0 l/m 0 min 0 min 0 W/m 0,0 km/h (0 Bft) 97,83 %
06.07.2018 23:12 20,2 C 16,1 C 15,0 C 72 % 1019,3 hPa 0,0 l/m 0 min 0 min 0 W/m 2,3 km/h (1 Bft) 100,00 %
06.07.2018 23:14 20,2 C 16,1 C 15,0 C 72 % 1019,3 hPa 0,0 l/m 0 min 0 min 0 W/m 2,3 km/h (1 Bft) 100,00 %
06.07.2018 23:16 20,1 C 16,1 C 15,0 C 72 % 1019,3 hPa 0,0 l/m 0 min 0 min 0 W/m 2,3 km/h (1 Bft) 100,00 %
06.07.2018 23:18 20,0 C 16,1 C 15,0 C 72 % 1019,3 hPa 0,0 l/m 0 min 0 min 0 W/m 4,5 km/h (1 Bft) 100,00 %
06.07.2018 23:20 20,0 C 16,1 C 15,0 C 71 % 1019,4 hPa 0,0 l/m 0 min 0 min 0 W/m 4,5 km/h (1 Bft) 100,00 %
06.07.2018 23:22 19,9 C 16,1 C 15,0 C 71 % 1019,4 hPa 0,0 l/m 0 min 0 min 0 W/m 0,0 km/h (0 Bft) 97,62 %
06.07.2018 23:24 19,9 C 16,1 C 15,6 C 72 % 1019,4 hPa 0,0 l/m 0 min 0 min 0 W/m 2,3 km/h (1 Bft) 95,65 %
06.07.2018 23:26 19,8 C 16,1 C 15,6 C 72 % 1019,4 hPa 0,0 l/m 0 min 0 min 0 W/m 2,3 km/h (1 Bft) 95,74 %
06.07.2018 23:28 19,8 C 16,1 C 15,6 C 72 % 1019,4 hPa 0,0 l/m 0 min 0 min 0 W/m 2,3 km/h (1 Bft) 93,62 %
06.07.2018 23:30 19,8 C 16,1 C 15,6 C 72 % 1019,4 hPa 0,0 l/m 0 min 0 min 0 W/m 0,0 km/h (0 Bft) 95,74 %
06.07.2018 23:32 19,7 C 16,1 C 15,6 C 72 % 1019,4 hPa 0,0 l/m 0 min 0 min 0 W/m 0,0 km/h (0 Bft) 95,74 %
06.07.2018 23:34 19,7 C 16,1 C 15,6 C 71 % 1019,4 hPa 0,0 l/m 0 min 0 min 0 W/m 2,3 km/h (1 Bft) 93,62 %
06.07.2018 23:36 19,7 C 16,7 C 15,6 C 71 % 1019,5 hPa 0,0 l/m 0 min 0 min 0 W/m 4,5 km/h (1 Bft) 95,35 %
06.07.2018 23:38 19,6 C 16,7 C 15,6 C 71 % 1019,5 hPa 0,0 l/m 0 min 0 min 0 W/m 0,0 km/h (0 Bft) 91,49 %
06.07.2018 23:40 19,6 C 16,1 C 15,6 C 71 % 1019,5 hPa 0,0 l/m 0 min 0 min 0 W/m 2,3 km/h (1 Bft) 93,62 %
06.07.2018 23:42 19,6 C 16,1 C 16,1 C 71 % 1019,5 hPa 0,0 l/m 0 min 0 min 0 W/m 4,5 km/h (1 Bft) 95,12 %
06.07.2018 23:44 19,5 C 16,1 C 15,6 C 71 % 1019,5 hPa 0,0 l/m 0 min 0 min 0 W/m 4,5 km/h (1 Bft) 95,74 %
06.07.2018 23:46 19,5 C 16,1 C 15,6 C 71 % 1019,5 hPa 0,0 l/m 0 min 0 min 0 W/m 4,5 km/h (1 Bft) 93,75 %
06.07.2018 23:48 19,4 C 16,1 C 15,6 C 71 % 1019,5 hPa 0,0 l/m 0 min 0 min 0 W/m 0,0 km/h (0 Bft) 93,75 %
06.07.2018 23:50 19,4 C 16,1 C 16,1 C 71 % 1019,5 hPa 0,0 l/m 0 min 0 min 0 W/m 2,3 km/h (1 Bft) 95,65 %
06.07.2018 23:52 19,4 C 16,1 C 16,1 C 72 % 1019,6 hPa 0,0 l/m 0 min 0 min 0 W/m 4,5 km/h (1 Bft) 93,22 %
06.07.2018 23:54 19,4 C 16,1 C 16,1 C 71 % 1019,6 hPa 0,0 l/m 0 min 0 min 0 W/m 4,5 km/h (1 Bft) 97,22 %
06.07.2018 23:56 19,4 C 16,1 C 16,1 C 71 % 1019,6 hPa 0,0 l/m 0 min 0 min 0 W/m 2,3 km/h (1 Bft) 93,75 %
06.07.2018 23:58 19,4 C 16,7 C 16,1 C 71 % 1019,6 hPa 0,0 l/m 0 min 0 min 0 W/m 4,5 km/h (1 Bft) 93,75 %
_ Min-Zeit 06:22 05:16 05:00 16:58 00:00 - - - - 00:02 16:54
Minimum _ 14,9 C 13,9 C 14,4 C 54 % 1014,1 hPa - - - - 0,0 km/h (0 Bft) 86,96 %
_ Max-Zeit 16:48 12:38 15:44 06:42 23:52 14:42 17:16 00:00 15:44 16:48 00:00
Maximum _ 27,2 C 33,3 C 25,0 C 93 % 1019,6 hPa 0,2 l/m 5 min 0 min 1007 W/m 24,8 km/h
NW (4 Bft)
100,00 %
Durchschnitt _ 20,8 C 21,0 C 19,0 C 73 % 1017,4 hPa #0,2 l/m #7:59 h #0 min. 366 W/m 7,6 km/h (2 Bft) 97,59 %
© 2018 W. Hausmann